2016 Cux-Wetter.de -Die Nutzung der Wetterdaten nur mit ausdrcklicher Genehmigung
Wetterdaten: Freitag, 08.03.2019
Datum Zeit Temp. A. Feuchte A. Luftdruck Regen Wind Richtung Richtung Sonnenschein Solar Taupunkt Windchill Windben
08.03.2019 00:00 6,7 C 89 % 988,1 hPa 0,0 l/m 30,3 km/h (5 Bft) W-SW 246 0 min 0 W/m 5,0 C -4,1 C 40,2 km/h (6 Bft)
08.03.2019 00:03 6,7 C 89 % 987,9 hPa 0,0 l/m 28,1 km/h (5 Bft) W-SW 250 0 min 0 W/m 5,0 C -3,5 C 40,2 km/h (6 Bft)
08.03.2019 00:06 6,6 C 90 % 987,9 hPa 0,0 l/m 24,7 km/h (4 Bft) S-SW 197 0 min 0 W/m 5,1 C -2,7 C 37,0 km/h (5 Bft)
08.03.2019 00:09 6,6 C 90 % 987,9 hPa 0,2 l/m 24,5 km/h (4 Bft) W-SW 237 0 min 0 W/m 5,1 C -2,6 C 38,6 km/h (6 Bft)
08.03.2019 00:12 6,6 C 90 % 987,8 hPa 0,0 l/m 30,6 km/h (5 Bft) SW 223 0 min 0 W/m 5,1 C -4,3 C 45,1 km/h (6 Bft)
08.03.2019 00:15 6,5 C 90 % 987,8 hPa 0,0 l/m 26,8 km/h (4 Bft) S-SW 192 0 min 0 W/m 5,0 C -3,4 C 37,0 km/h (5 Bft)
08.03.2019 00:18 6,4 C 90 % 987,8 hPa 0,2 l/m 28,4 km/h (5 Bft) S-SW 213 0 min 0 W/m 4,9 C -4,0 C 49,9 km/h (7 Bft)
08.03.2019 00:21 6,3 C 91 % 987,8 hPa 0,0 l/m 26,3 km/h (4 Bft) S-SW 202 0 min 0 W/m 4,9 C -3,6 C 41,8 km/h (6 Bft)
08.03.2019 00:24 6,3 C 91 % 987,8 hPa 0,0 l/m 23,6 km/h (4 Bft) S-SW 213 0 min 0 W/m 4,9 C -2,7 C 37,0 km/h (5 Bft)
08.03.2019 00:27 6,3 C 91 % 987,7 hPa 0,0 l/m 29,5 km/h (5 Bft) SW 216 0 min 0 W/m 4,9 C -4,4 C 41,8 km/h (6 Bft)
08.03.2019 00:30 6,3 C 91 % 987,6 hPa 0,0 l/m 25,7 km/h (4 Bft) SW 225 0 min 0 W/m 4,9 C -3,4 C 33,8 km/h (5 Bft)
08.03.2019 00:33 6,3 C 91 % 987,6 hPa 0,0 l/m 30,9 km/h (5 Bft) W-SW 240 0 min 0 W/m 4,9 C -4,8 C 46,7 km/h (6 Bft)
08.03.2019 00:36 6,3 C 91 % 987,6 hPa 0,0 l/m 25,3 km/h (4 Bft) SW 215 0 min 0 W/m 4,9 C -3,3 C 43,5 km/h (6 Bft)
08.03.2019 00:39 6,3 C 91 % 987,6 hPa 0,0 l/m 24,7 km/h (4 Bft) S-SW 192 0 min 0 W/m 4,9 C -3,1 C 37,0 km/h (5 Bft)
08.03.2019 00:42 6,3 C 91 % 987,6 hPa 0,0 l/m 26,3 km/h (4 Bft) SW 229 0 min 0 W/m 4,9 C -3,6 C 38,6 km/h (6 Bft)
08.03.2019 00:45 6,3 C 92 % 987,6 hPa 0,0 l/m 28,0 km/h (5 Bft) S 186 0 min 0 W/m 5,1 C -4,0 C 41,8 km/h (6 Bft)
08.03.2019 00:48 6,4 C 92 % 987,6 hPa 0,0 l/m 24,9 km/h (4 Bft) S-SW 192 0 min 0 W/m 5,2 C -3,0 C 40,2 km/h (6 Bft)
08.03.2019 00:51 6,4 C 92 % 987,6 hPa 0,0 l/m 23,9 km/h (4 Bft) S-SW 211 0 min 0 W/m 5,2 C -2,7 C 33,8 km/h (5 Bft)
08.03.2019 00:54 6,4 C 92 % 987,7 hPa 0,0 l/m 25,1 km/h (4 Bft) S 186 0 min 0 W/m 5,2 C -3,1 C 43,5 km/h (6 Bft)
08.03.2019 00:57 6,4 C 92 % 987,6 hPa 0,2 l/m 25,5 km/h (4 Bft) SW 229 0 min 0 W/m 5,2 C -3,2 C 41,8 km/h (6 Bft)
08.03.2019 01:00 6,4 C 92 % 987,7 hPa 0,0 l/m 23,4 km/h (4 Bft) S-SW 202 0 min 0 W/m 5,2 C -2,5 C 32,2 km/h (5 Bft)
08.03.2019 01:03 6,5 C 92 % 987,6 hPa 0,2 l/m 25,7 km/h (4 Bft) SW 232 0 min 0 W/m 5,3 C -3,1 C 41,8 km/h (6 Bft)
08.03.2019 01:06 6,5 C 92 % 987,6 hPa 0,2 l/m 25,3 km/h (4 Bft) W 269 0 min 0 W/m 5,3 C -3,0 C 43,5 km/h (6 Bft)
08.03.2019 01:09 6,5 C 92 % 987,6 hPa 0,2 l/m 27,2 km/h (5 Bft) S-SW 193 0 min 0 W/m 5,3 C -3,5 C 41,8 km/h (6 Bft)
08.03.2019 01:12 6,5 C 92 % 987,6 hPa 0,2 l/m 26,1 km/h (4 Bft) S 187 0 min 0 W/m 5,3 C -3,2 C 43,5 km/h (6 Bft)
08.03.2019 01:15 6,5 C 92 % 987,7 hPa 0,2 l/m 27,8 km/h (5 Bft) S-SW 202 0 min 0 W/m 5,3 C -3,7 C 46,7 km/h (6 Bft)
08.03.2019 01:18 6,5 C 93 % 987,8 hPa 0,2 l/m 26,7 km/h (4 Bft) SW 221 0 min 0 W/m 5,5 C -3,4 C 37,0 km/h (5 Bft)
08.03.2019 01:21 6,5 C 93 % 987,8 hPa 0,4 l/m 26,1 km/h (4 Bft) SW 233 0 min 0 W/m 5,5 C -3,2 C 38,6 km/h (6 Bft)
08.03.2019 01:24 6,5 C 93 % 987,9 hPa 0,4 l/m 25,5 km/h (4 Bft) SW 223 0 min 0 W/m 5,5 C -3,1 C 35,4 km/h (5 Bft)
08.03.2019 01:27 6,5 C 93 % 987,8 hPa 0,2 l/m 22,9 km/h (4 Bft) W-SW 255 0 min 0 W/m 5,5 C -2,3 C 32,2 km/h (5 Bft)
08.03.2019 01:30 6,5 C 93 % 987,8 hPa 0,2 l/m 22,4 km/h (4 Bft) S-SW 208 0 min 0 W/m 5,5 C -2,1 C 32,2 km/h (5 Bft)
08.03.2019 01:33 6,5 C 93 % 987,7 hPa 0,2 l/m 23,1 km/h (4 Bft) S-SW 209 0 min 0 W/m 5,5 C -2,3 C 35,4 km/h (5 Bft)
08.03.2019 01:36 6,5 C 93 % 987,8 hPa 0,2 l/m 24,9 km/h (4 Bft) SW 230 0 min 0 W/m 5,5 C -2,9 C 37,0 km/h (5 Bft)
08.03.2019 01:39 6,5 C 93 % 987,8 hPa 0,2 l/m 25,2 km/h (4 Bft) W-SW 243 0 min 0 W/m 5,5 C -3,0 C 43,5 km/h (6 Bft)
08.03.2019 01:42 6,5 C 94 % 987,8 hPa 0,2 l/m 20,8 km/h (4 Bft) W-SW 240 0 min 0 W/m 5,6 C -1,5 C 40,2 km/h (6 Bft)
08.03.2019 01:45 6,5 C 94 % 987,8 hPa 0,2 l/m 25,5 km/h (4 Bft) SW 235 0 min 0 W/m 5,6 C -3,1 C 37,0 km/h (5 Bft)
08.03.2019 01:48 6,5 C 94 % 987,9 hPa 0,2 l/m 28,2 km/h (5 Bft) S-SW 204 0 min 0 W/m 5,6 C -3,8 C 43,5 km/h (6 Bft)
08.03.2019 01:51 6,5 C 94 % 987,9 hPa 0,2 l/m 26,6 km/h (4 Bft) SW 225 0 min 0 W/m 5,6 C -3,4 C 41,8 km/h (6 Bft)
08.03.2019 01:54 6,5 C 94 % 987,9 hPa 0,2 l/m 29,5 km/h (5 Bft) SW 231 0 min 0 W/m 5,6 C -4,1 C 43,5 km/h (6 Bft)
08.03.2019 01:57 6,5 C 94 % 988,0 hPa 0,0 l/m 27,6 km/h (5 Bft) W-SW 252 0 min 0 W/m 5,6 C -3,6 C 54,7 km/h (7 Bft)
08.03.2019 02:00 6,5 C 94 % 987,9 hPa 0,2 l/m 25,9 km/h (4 Bft) SW 232 0 min 0 W/m 5,6 C -3,2 C 41,8 km/h (6 Bft)
08.03.2019 02:03 6,5 C 94 % 987,9 hPa 0,0 l/m 24,9 km/h (4 Bft) SW 227 0 min 0 W/m 5,6 C -2,9 C 37,0 km/h (5 Bft)
08.03.2019 02:06 6,5 C 94 % 988,0 hPa 0,2 l/m 23,9 km/h (4 Bft) SW 217 0 min 0 W/m 5,6 C -2,6 C 35,4 km/h (5 Bft)
08.03.2019 02:09 6,5 C 94 % 988,1 hPa 0,2 l/m 24,2 km/h (4 Bft) SW 221 0 min 0 W/m 5,6 C -2,7 C 38,6 km/h (6 Bft)
08.03.2019 02:12 6,5 C 94 % 988,0 hPa 0,0 l/m 23,0 km/h (4 Bft) SW 231 0 min 0 W/m 5,6 C -2,3 C 30,6 km/h (5 Bft)
08.03.2019 02:15 6,5 C 94 % 988,0 hPa 0,2 l/m 22,3 km/h (4 Bft) SW 234 0 min 0 W/m 5,6 C -2,1 C 38,6 km/h (6 Bft)
08.03.2019 02:18 6,5 C 94 % 988,1 hPa 0,0 l/m 27,2 km/h (5 Bft) SW 229 0 min 0 W/m 5,6 C -3,5 C 40,2 km/h (6 Bft)
08.03.2019 02:21 6,5 C 94 % 988,1 hPa 0,0 l/m 26,5 km/h (4 Bft) S-SW 198 0 min 0 W/m 5,6 C -3,3 C 41,8 km/h (6 Bft)
08.03.2019 02:24 6,5 C 94 % 988,1 hPa 0,2 l/m 27,1 km/h (5 Bft) W-SW 244 0 min 0 W/m 5,6 C -3,5 C 37,0 km/h (5 Bft)
08.03.2019 02:27 6,4 C 94 % 988,0 hPa 0,2 l/m 23,3 km/h (4 Bft) S-SW 200 0 min 0 W/m 5,5 C -2,5 C 40,2 km/h (6 Bft)
08.03.2019 02:30 6,4 C 95 % 988,0 hPa 0,0 l/m 25,3 km/h (4 Bft) S-SW 205 0 min 0 W/m 5,7 C -3,1 C 37,0 km/h (5 Bft)
08.03.2019 02:33 6,4 C 94 % 987,9 hPa 0,0 l/m 27,8 km/h (5 Bft) S-SW 207 0 min 0 W/m 5,5 C -3,8 C 40,2 km/h (6 Bft)
08.03.2019 02:36 6,4 C 94 % 988,0 hPa 0,0 l/m 29,3 km/h (5 Bft) S-SW 213 0 min 0 W/m 5,5 C -4,2 C 45,1 km/h (6 Bft)
08.03.2019 02:39 6,3 C 94 % 987,9 hPa 0,0 l/m 27,6 km/h (5 Bft) S-SW 200 0 min 0 W/m 5,4 C -3,9 C 38,6 km/h (6 Bft)
08.03.2019 02:42 6,3 C 94 % 987,9 hPa 0,0 l/m 27,1 km/h (5 Bft) W-SW 242 0 min 0 W/m 5,4 C -3,8 C 41,8 km/h (6 Bft)
08.03.2019 02:45 6,3 C 94 % 988,0 hPa 0,0 l/m 25,8 km/h (4 Bft) W-SW 241 0 min 0 W/m 5,4 C -3,4 C 38,6 km/h (6 Bft)
08.03.2019 02:48 6,3 C 94 % 988,1 hPa 0,0 l/m 28,2 km/h (5 Bft) SW 219 0 min 0 W/m 5,4 C -4,1 C 38,6 km/h (6 Bft)
08.03.2019 02:51 6,3 C 94 % 988,1 hPa 0,2 l/m 28,4 km/h (5 Bft) S-SW 194 0 min 0 W/m 5,4 C -4,1 C 43,5 km/h (6 Bft)
08.03.2019 02:54 6,3 C 94 % 988,2 hPa 0,0 l/m 25,9 km/h (4 Bft) SW 231 0 min 0 W/m 5,4 C -3,4 C 41,8 km/h (6 Bft)
08.03.2019 02:57 6,3 C 95 % 988,2 hPa 0,0 l/m 25,5 km/h (4 Bft) SW 229 0 min 0 W/m 5,6 C -3,3 C 40,2 km/h (6 Bft)
08.03.2019 03:00 6,3 C 95 % 988,2 hPa 0,0 l/m 25,0 km/h (4 Bft) S-SW 212 0 min 0 W/m 5,6 C -3,2 C 33,8 km/h (5 Bft)
08.03.2019 03:03 6,3 C 95 % 988,1 hPa 0,0 l/m 26,5 km/h (4 Bft) W-SW 238 0 min 0 W/m 5,6 C -3,6 C 38,6 km/h (6 Bft)
08.03.2019 03:06 6,3 C 95 % 988,2 hPa 0,2 l/m 25,5 km/h (4 Bft) W-SW 240 0 min 0 W/m 5,6 C -3,3 C 37,0 km/h (5 Bft)
08.03.2019 03:09 6,4 C 95 % 988,2 hPa 0,0 l/m 25,7 km/h (4 Bft) SW 229 0 min 0 W/m 5,7 C -3,3 C 35,4 km/h (5 Bft)
08.03.2019 03:12 6,4 C 95 % 988,2 hPa 0,0 l/m 25,1 km/h (4 Bft) SW 215 0 min 0 W/m 5,7 C -3,1 C 38,6 km/h (6 Bft)
08.03.2019 03:15 6,4 C 95 % 988,3 hPa 0,0 l/m 23,9 km/h (4 Bft) SW 227 0 min 0 W/m 5,7 C -2,7 C 41,8 km/h (6 Bft)
08.03.2019 03:18 6,4 C 95 % 988,3 hPa 0,2 l/m 26,7 km/h (4 Bft) SW 223 0 min 0 W/m 5,7 C -3,5 C 40,2 km/h (6 Bft)
08.03.2019 03:21 6,4 C 95 % 988,3 hPa 0,0 l/m 30,7 km/h (5 Bft) SW 216 0 min 0 W/m 5,7 C -4,6 C 51,5 km/h (7 Bft)
08.03.2019 03:24 6,4 C 95 % 988,4 hPa 0,0 l/m 25,8 km/h (4 Bft) SW 228 0 min 0 W/m 5,7 C -3,3 C 33,8 km/h (5 Bft)
08.03.2019 03:27 6,4 C 95 % 988,5 hPa 0,2 l/m 25,2 km/h (4 Bft) SW 215 0 min 0 W/m 5,7 C -3,1 C 40,2 km/h (6 Bft)
08.03.2019 03:30 6,4 C 95 % 988,5 hPa 0,0 l/m 26,4 km/h (4 Bft) S-SW 206 0 min 0 W/m 5,7 C -3,5 C 35,4 km/h (5 Bft)
08.03.2019 03:33 6,4 C 95 % 988,5 hPa 0,0 l/m 23,5 km/h (4 Bft) SW 219 0 min 0 W/m 5,7 C -2,6 C 32,2 km/h (5 Bft)
08.03.2019 03:36 6,5 C 95 % 988,6 hPa 0,0 l/m 22,4 km/h (4 Bft) SW 226 0 min 0 W/m 5,8 C -2,1 C 38,6 km/h (6 Bft)
08.03.2019 03:39 6,5 C 95 % 988,7 hPa 0,0 l/m 17,0 km/h (3 Bft) W 264 0 min 0 W/m 5,8 C -0,0 C 30,6 km/h (5 Bft)
08.03.2019 03:42 6,5 C 95 % 988,7 hPa 0,0 l/m 17,7 km/h (3 Bft) W-SW 244 0 min 0 W/m 5,8 C -0,3 C 33,8 km/h (5 Bft)
08.03.2019 03:45 6,6 C 95 % 988,7 hPa 0,0 l/m 15,9 km/h (3 Bft) SW 221 0 min 0 W/m 5,9 C 0,6 C 30,6 km/h (5 Bft)
08.03.2019 03:48 6,6 C 95 % 988,8 hPa 0,0 l/m 16,4 km/h (3 Bft) NW 311 0 min 0 W/m 5,9 C 0,4 C 35,4 km/h (5 Bft)
08.03.2019 03:51 6,6 C 95 % 988,8 hPa 0,0 l/m 16,9 km/h (3 Bft) S-SW 211 0 min 0 W/m 5,9 C 0,1 C 27,4 km/h (5 Bft)
08.03.2019 03:54 6,6 C 95 % 988,9 hPa 0,0 l/m 15,2 km/h (3 Bft) W-SW 257 0 min 0 W/m 5,9 C 0,9 C 25,7 km/h (4 Bft)
08.03.2019 03:57 6,6 C 95 % 989,0 hPa 0,0 l/m 18,3 km/h (3 Bft) W-SW 244 0 min 0 W/m 5,9 C -0,4 C 30,6 km/h (5 Bft)
08.03.2019 04:00 6,7 C 95 % 989,0 hPa 0,0 l/m 20,3 km/h (4 Bft) W 260 0 min 0 W/m 6,0 C -1,1 C 33,8 km/h (5 Bft)
08.03.2019 04:03 6,7 C 95 % 989,0 hPa 0,0 l/m 18,1 km/h (3 Bft) W 275 0 min 0 W/m 6,0 C -0,2 C 35,4 km/h (5 Bft)
08.03.2019 04:06 6,7 C 95 % 989,0 hPa 0,0 l/m 17,9 km/h (3 Bft) SW 223 0 min 0 W/m 6,0 C -0,2 C 30,6 km/h (5 Bft)
08.03.2019 04:09 6,7 C 95 % 989,0 hPa 0,0 l/m 18,1 km/h (3 Bft) W-SW 244 0 min 0 W/m 6,0 C -0,2 C 37,0 km/h (5 Bft)
08.03.2019 04:12 6,7 C 95 % 989,1 hPa 0,0 l/m 21,4 km/h (4 Bft) S-SW 196 0 min 0 W/m 6,0 C -1,5 C 32,2 km/h (5 Bft)
08.03.2019 04:15 6,7 C 95 % 989,2 hPa 0,0 l/m 18,2 km/h (3 Bft) W 260 0 min 0 W/m 6,0 C -0,3 C 29,0 km/h (5 Bft)
08.03.2019 04:18 6,7 C 95 % 989,3 hPa 0,0 l/m 18,1 km/h (3 Bft) W-SW 238 0 min 0 W/m 6,0 C -0,2 C 30,6 km/h (5 Bft)
08.03.2019 04:21 6,7 C 95 % 989,3 hPa 0,0 l/m 20,5 km/h (4 Bft) SW 227 0 min 0 W/m 6,0 C -1,2 C 33,8 km/h (5 Bft)
08.03.2019 04:24 6,7 C 95 % 989,3 hPa 0,0 l/m 19,9 km/h (4 Bft) W-SW 246 0 min 0 W/m 6,0 C -0,9 C 30,6 km/h (5 Bft)
08.03.2019 04:27 6,7 C 95 % 989,4 hPa 0,0 l/m 18,6 km/h (3 Bft) W-NW 284 0 min 0 W/m 6,0 C -0,4 C 37,0 km/h (5 Bft)
08.03.2019 04:30 6,7 C 95 % 989,4 hPa 0,0 l/m 20,9 km/h (4 Bft) W-SW 242 0 min 0 W/m 6,0 C -1,3 C 33,8 km/h (5 Bft)
08.03.2019 04:33 6,7 C 95 % 989,5 hPa 0,0 l/m 20,7 km/h (4 Bft) W-SW 253 0 min 0 W/m 6,0 C -1,2 C 32,2 km/h (5 Bft)
08.03.2019 04:36 6,7 C 95 % 989,5 hPa 0,0 l/m 18,3 km/h (3 Bft) SW 232 0 min 0 W/m 6,0 C -0,3 C 33,8 km/h (5 Bft)
08.03.2019 04:39 6,7 C 95 % 989,6 hPa 0,0 l/m 22,3 km/h (4 Bft) W-SW 249 0 min 0 W/m 6,0 C -1,8 C 35,4 km/h (5 Bft)
08.03.2019 04:42 6,7 C 95 % 989,6 hPa 0,0 l/m 18,6 km/h (3 Bft) W 271 0 min 0 W/m 6,0 C -0,4 C 30,6 km/h (5 Bft)
08.03.2019 04:45 6,7 C 95 % 989,7 hPa 0,0 l/m 18,1 km/h (3 Bft) W-SW 256 0 min 0 W/m 6,0 C -0,2 C 30,6 km/h (5 Bft)
08.03.2019 04:48 6,7 C 95 % 989,7 hPa 0,0 l/m 17,6 km/h (3 Bft) W 266 0 min 0 W/m 6,0 C -0,0 C 30,6 km/h (5 Bft)
08.03.2019 04:51 6,7 C 95 % 989,8 hPa 0,0 l/m 17,7 km/h (3 Bft) W-SW 247 0 min 0 W/m 6,0 C -0,1 C 30,6 km/h (5 Bft)
08.03.2019 04:54 6,7 C 95 % 989,8 hPa 0,0 l/m 16,5 km/h (3 Bft) W 273 0 min 0 W/m 6,0 C 0,4 C 27,4 km/h (5 Bft)
08.03.2019 04:57 6,7 C 95 % 990,0 hPa 0,0 l/m 20,3 km/h (4 Bft) W-SW 244 0 min 0 W/m 6,0 C -1,1 C 43,5 km/h (6 Bft)
08.03.2019 05:00 6,7 C 95 % 990,0 hPa 0,0 l/m 20,8 km/h (4 Bft) W-SW 246 0 min 0 W/m 6,0 C -1,3 C 35,4 km/h (5 Bft)
08.03.2019 05:03 6,6 C 95 % 990,0 hPa 0,0 l/m 20,4 km/h (4 Bft) S-SW 207 0 min 0 W/m 5,9 C -1,3 C 30,6 km/h (5 Bft)
08.03.2019 05:06 6,6 C 95 % 990,1 hPa 0,0 l/m 19,6 km/h (3 Bft) W 277 0 min 0 W/m 5,9 C -1,0 C 32,2 km/h (5 Bft)
08.03.2019 05:09 6,6 C 95 % 990,1 hPa 0,0 l/m 20,5 km/h (4 Bft) W-SW 250 0 min 0 W/m 5,9 C -1,3 C 33,8 km/h (5 Bft)
08.03.2019 05:12 6,6 C 95 % 990,1 hPa 0,0 l/m 21,1 km/h (4 Bft) W-SW 255 0 min 0 W/m 5,9 C -1,5 C 38,6 km/h (6 Bft)
08.03.2019 05:15 6,6 C 95 % 990,2 hPa 0,0 l/m 22,3 km/h (4 Bft) W 273 0 min 0 W/m 5,9 C -1,9 C 38,6 km/h (6 Bft)
08.03.2019 05:18 6,7 C 95 % 990,3 hPa 0,0 l/m 23,1 km/h (4 Bft) SW 223 0 min 0 W/m 6,0 C -2,1 C 33,8 km/h (5 Bft)
08.03.2019 05:21 6,7 C 95 % 990,5 hPa 0,0 l/m 22,1 km/h (4 Bft) SW 227 0 min 0 W/m 6,0 C -1,7 C 33,8 km/h (5 Bft)
08.03.2019 05:24 6,7 C 95 % 990,6 hPa 0,0 l/m 26,8 km/h (4 Bft) W-SW 257 0 min 0 W/m 6,0 C -3,2 C 46,7 km/h (6 Bft)
08.03.2019 05:27 6,7 C 95 % 990,7 hPa 0,0 l/m 25,2 km/h (4 Bft) W 272 0 min 0 W/m 6,0 C -2,7 C 38,6 km/h (6 Bft)
08.03.2019 05:30 6,7 C 95 % 990,9 hPa 0,0 l/m 27,1 km/h (5 Bft) W-SW 254 0 min 0 W/m 6,0 C -3,2 C 43,5 km/h (6 Bft)
08.03.2019 05:33 6,7 C 95 % 991,0 hPa 0,0 l/m 23,1 km/h (4 Bft) W 278 0 min 0 W/m 6,0 C -2,1 C 38,6 km/h (6 Bft)
08.03.2019 05:36 6,7 C 95 % 991,2 hPa 0,0 l/m 24,8 km/h (4 Bft) SW 228 0 min 0 W/m 6,0 C -2,6 C 40,2 km/h (6 Bft)
08.03.2019 05:39 6,6 C 95 % 991,2 hPa 0,0 l/m 24,4 km/h (4 Bft) W-SW 258 0 min 0 W/m 5,9 C -2,6 C 41,8 km/h (6 Bft)
08.03.2019 05:42 6,6 C 95 % 991,3 hPa 0,0 l/m 24,0 km/h (4 Bft) SW 236 0 min 0 W/m 5,9 C -2,5 C 48,3 km/h (6 Bft)
08.03.2019 05:45 6,5 C 95 % 991,5 hPa 0,0 l/m 20,8 km/h (4 Bft) W 261 0 min 0 W/m 5,8 C -1,5 C 37,0 km/h (5 Bft)
08.03.2019 05:48 6,5 C 95 % 991,6 hPa 0,0 l/m 22,7 km/h (4 Bft) W-SW 247 0 min 0 W/m 5,8 C -2,2 C 46,7 km/h (6 Bft)
08.03.2019 05:51 6,4 C 95 % 991,6 hPa 0,0 l/m 24,8 km/h (4 Bft) W 281 0 min 0 W/m 5,7 C -3,0 C 40,2 km/h (6 Bft)
08.03.2019 05:54 6,4 C 95 % 991,8 hPa 0,0 l/m 27,0 km/h (5 Bft) W 281 0 min 0 W/m 5,7 C -3,6 C 48,3 km/h (6 Bft)
08.03.2019 05:57 6,3 C 95 % 992,0 hPa 0,0 l/m 23,4 km/h (4 Bft) W-NW 303 0 min 0 W/m 5,6 C -2,7 C 37,0 km/h (5 Bft)
08.03.2019 06:00 6,3 C 95 % 992,1 hPa 0,0 l/m 22,5 km/h (4 Bft) W 267 0 min 0 W/m 5,6 C -2,4 C 35,4 km/h (5 Bft)
08.03.2019 06:03 6,2 C 95 % 992,2 hPa 0,0 l/m 21,2 km/h (4 Bft) W 271 0 min 0 W/m 5,5 C -2,1 C 40,2 km/h (6 Bft)
08.03.2019 06:06 6,2 C 95 % 992,3 hPa 0,0 l/m 19,8 km/h (3 Bft) W-SW 250 0 min 0 W/m 5,5 C -1,5 C 37,0 km/h (5 Bft)
08.03.2019 06:09 6,2 C 95 % 992,4 hPa 0,0 l/m 20,0 km/h (4 Bft) SW 234 0 min 0 W/m 5,5 C -1,6 C 33,8 km/h (5 Bft)
08.03.2019 06:12 6,1 C 95 % 992,6 hPa 0,0 l/m 21,5 km/h (4 Bft) W 267 0 min 0 W/m 5,4 C -2,3 C 43,5 km/h (6 Bft)
08.03.2019 06:15 6,1 C 95 % 992,5 hPa 0,0 l/m 22,7 km/h (4 Bft) W-SW 253 0 min 0 W/m 5,4 C -2,7 C 43,5 km/h (6 Bft)
08.03.2019 06:18 6,1 C 95 % 992,8 hPa 0,0 l/m 25,1 km/h (4 Bft) W-SW 250 0 min 0 W/m 5,4 C -3,5 C 43,5 km/h (6 Bft)
08.03.2019 06:21 6,1 C 95 % 992,9 hPa 0,0 l/m 23,8 km/h (4 Bft) SW 217 0 min 0 W/m 5,4 C -3,1 C 37,0 km/h (5 Bft)
08.03.2019 06:24 6,1 C 95 % 993,1 hPa 0,0 l/m 19,8 km/h (3 Bft) W 274 0 min 0 W/m 5,4 C -1,7 C 30,6 km/h (5 Bft)
08.03.2019 06:27 6,1 C 95 % 993,2 hPa 0,2 l/m 25,3 km/h (4 Bft) W 275 0 min 0 W/m 5,4 C -3,5 C 46,7 km/h (6 Bft)
08.03.2019 06:30 6,1 C 95 % 993,2 hPa 0,0 l/m 26,3 km/h (4 Bft) W 276 0 min 0 W/m 5,4 C -3,8 C 45,1 km/h (6 Bft)
08.03.2019 06:33 6,1 C 95 % 993,4 hPa 0,0 l/m 20,0 km/h (4 Bft) W-SW 248 0 min 0 W/m 5,4 C -1,8 C 30,6 km/h (5 Bft)
08.03.2019 06:36 6,1 C 95 % 993,4 hPa 0,0 l/m 20,7 km/h (4 Bft) NW 308 0 min 0 W/m 5,4 C -2,0 C 32,2 km/h (5 Bft)
08.03.2019 06:39 6,1 C 95 % 993,6 hPa 0,0 l/m 21,2 km/h (4 Bft) W-SW 241 0 min 0 W/m 5,4 C -2,2 C 38,6 km/h (6 Bft)
08.03.2019 06:42 6,1 C 95 % 993,8 hPa 0,0 l/m 21,9 km/h (4 Bft) W 279 0 min 0 W/m 5,4 C -2,4 C 33,8 km/h (5 Bft)
08.03.2019 06:45 6,1 C 95 % 993,8 hPa 0,0 l/m 21,8 km/h (4 Bft) W-NW 289 0 min 0 W/m 5,4 C -2,4 C 40,2 km/h (6 Bft)
08.03.2019 06:48 6,1 C 95 % 994,0 hPa 0,0 l/m 19,7 km/h (3 Bft) W 261 0 min 0 W/m 5,4 C -1,6 C 35,4 km/h (5 Bft)
08.03.2019 06:51 6,1 C 95 % 994,2 hPa 0,0 l/m 22,3 km/h (4 Bft) W 277 0 min 0 W/m 5,4 C -2,6 C 40,2 km/h (6 Bft)
08.03.2019 06:54 6,1 C 94 % 994,3 hPa 0,0 l/m 21,5 km/h (4 Bft) W 273 0 min 0 W/m 5,2 C -2,3 C 33,8 km/h (5 Bft)
08.03.2019 06:57 6,1 C 94 % 994,4 hPa 0,0 l/m 21,9 km/h (4 Bft) W 265 0 min 0 W/m 5,2 C -2,4 C 35,4 km/h (5 Bft)
08.03.2019 07:00 6,1 C 94 % 994,6 hPa 0,0 l/m 19,9 km/h (4 Bft) W-SW 257 0 min 0 W/m 5,2 C -1,7 C 33,8 km/h (5 Bft)
08.03.2019 07:03 6,0 C 94 % 994,7 hPa 0,0 l/m 19,0 km/h (3 Bft) W 262 0 min 0 W/m 5,1 C -1,5 C 33,8 km/h (5 Bft)
08.03.2019 07:06 6,0 C 94 % 994,9 hPa 0,0 l/m 22,4 km/h (4 Bft) SW 219 0 min 0 W/m 5,1 C -2,7 C 40,2 km/h (6 Bft)
08.03.2019 07:09 6,1 C 94 % 995,0 hPa 0,0 l/m 20,4 km/h (4 Bft) W-NW 290 0 min 0 W/m 5,2 C -1,9 C 40,2 km/h (6 Bft)
08.03.2019 07:12 6,1 C 94 % 995,1 hPa 0,0 l/m 21,0 km/h (4 Bft) NW 318 0 min 0 W/m 5,2 C -2,1 C 33,8 km/h (5 Bft)
08.03.2019 07:15 6,1 C 94 % 995,4 hPa 0,0 l/m 22,3 km/h (4 Bft) W 277 0 min 0 W/m 5,2 C -2,6 C 35,4 km/h (5 Bft)
08.03.2019 07:18 6,1 C 93 % 995,4 hPa 0,0 l/m 26,5 km/h (4 Bft) W 271 0 min 0 W/m 5,1 C -3,9 C 45,1 km/h (6 Bft)
08.03.2019 07:21 6,2 C 93 % 995,6 hPa 0,0 l/m 15,7 km/h (3 Bft) W 277 0 min 0 W/m 5,2 C 0,2 C 33,8 km/h (5 Bft)
08.03.2019 07:24 6,2 C 93 % 995,7 hPa 0,0 l/m 18,9 km/h (3 Bft) W 277 0 min 0 W/m 5,2 C -1,2 C 32,2 km/h (5 Bft)
08.03.2019 07:27 6,1 C 93 % 995,8 hPa 0,0 l/m 21,8 km/h (4 Bft) W 270 0 min 0 W/m 5,1 C -2,4 C 38,6 km/h (6 Bft)
08.03.2019 07:30 6,1 C 93 % 995,8 hPa 0,0 l/m 22,6 km/h (4 Bft) W-NW 286 0 min 0 W/m 5,1 C -2,7 C 41,8 km/h (6 Bft)
08.03.2019 07:33 6,0 C 93 % 996,1 hPa 0,0 l/m 22,8 km/h (4 Bft) W-NW 296 0 min 5 W/m 5,0 C -2,9 C 40,2 km/h (6 Bft)
08.03.2019 07:36 5,9 C 92 % 996,2 hPa 0,0 l/m 23,0 km/h (4 Bft) W-SW 241 0 min 9 W/m 4,7 C -3,1 C 37,0 km/h (5 Bft)
08.03.2019 07:39 5,9 C 92 % 996,3 hPa 0,0 l/m 25,5 km/h (4 Bft) NW 306 0 min 11 W/m 4,7 C -3,9 C 40,2 km/h (6 Bft)
08.03.2019 07:42 5,9 C 92 % 996,4 hPa 0,0 l/m 21,3 km/h (4 Bft) W-SW 251 0 min 11 W/m 4,7 C -2,5 C 37,0 km/h (5 Bft)
08.03.2019 07:45 5,9 C 92 % 996,5 hPa 0,0 l/m 19,8 km/h (3 Bft) W-NW 284 0 min 16 W/m 4,7 C -1,9 C 38,6 km/h (6 Bft)
08.03.2019 07:48 5,9 C 92 % 996,6 hPa 0,0 l/m 17,3 km/h (3 Bft) NW 315 0 min 23 W/m 4,7 C -0,9 C 33,8 km/h (5 Bft)
08.03.2019 07:51 6,0 C 91 % 996,7 hPa 0,0 l/m 16,0 km/h (3 Bft) W-NW 286 0 min 32 W/m 4,6 C -0,2 C 29,0 km/h (5 Bft)
08.03.2019 07:54 6,0 C 91 % 996,8 hPa 0,0 l/m 16,3 km/h (3 Bft) W-NW 287 0 min 35 W/m 4,6 C -0,3 C 32,2 km/h (5 Bft)
08.03.2019 07:57 6,1 C 91 % 996,9 hPa 0,0 l/m 19,0 km/h (3 Bft) W-SW 250 0 min 39 W/m 4,7 C -1,4 C 29,0 km/h (5 Bft)
08.03.2019 08:00 6,1 C 91 % 997,0 hPa 0,0 l/m 19,7 km/h (3 Bft) W-NW 286 0 min 40 W/m 4,7 C -1,6 C 30,6 km/h (5 Bft)
08.03.2019 08:03 6,2 C 90 % 997,2 hPa 0,0 l/m 18,1 km/h (3 Bft) W 265 0 min 40 W/m 4,7 C -0,9 C 33,8 km/h (5 Bft)
08.03.2019 08:06 6,2 C 90 % 997,3 hPa 0,0 l/m 21,6 km/h (4 Bft) W 273 0 min 42 W/m 4,7 C -2,2 C 38,6 km/h (6 Bft)
08.03.2019 08:09 6,2 C 90 % 997,4 hPa 0,0 l/m 19,8 km/h (3 Bft) W 263 0 min 39 W/m 4,7 C -1,5 C 38,6 km/h (6 Bft)
08.03.2019 08:12 6,3 C 89 % 997,6 hPa 0,0 l/m 22,1 km/h (4 Bft) W 265 0 min 35 W/m 4,6 C -2,2 C 41,8 km/h (6 Bft)
08.03.2019 08:15 6,4 C 89 % 997,7 hPa 0,0 l/m 24,0 km/h (4 Bft) W 265 0 min 23 W/m 4,7 C -2,7 C 41,8 km/h (6 Bft)
08.03.2019 08:18 6,4 C 89 % 997,9 hPa 0,0 l/m 23,8 km/h (4 Bft) W-NW 283 0 min 12 W/m 4,7 C -2,7 C 45,1 km/h (6 Bft)
08.03.2019 08:21 6,3 C 88 % 998,1 hPa 0,0 l/m 24,1 km/h (4 Bft) W-SW 254 0 min 19 W/m 4,5 C -2,9 C 41,8 km/h (6 Bft)
08.03.2019 08:24 6,3 C 88 % 998,2 hPa 0,0 l/m 25,5 km/h (4 Bft) W 269 0 min 39 W/m 4,5 C -3,3 C 46,7 km/h (6 Bft)
08.03.2019 08:27 6,2 C 88 % 998,4 hPa 0,0 l/m 19,7 km/h (3 Bft) W 275 0 min 62 W/m 4,4 C -1,5 C 43,5 km/h (6 Bft)
08.03.2019 08:30 6,1 C 87 % 998,5 hPa 0,0 l/m 19,5 km/h (3 Bft) W-SW 257 0 min 67 W/m 4,1 C -1,6 C 40,2 km/h (6 Bft)
08.03.2019 08:33 6,1 C 87 % 998,6 hPa 0,0 l/m 15,4 km/h (3 Bft) W 275 0 min 56 W/m 4,1 C 0,2 C 25,7 km/h (4 Bft)
08.03.2019 08:36 6,2 C 86 % 998,7 hPa 0,0 l/m 18,7 km/h (3 Bft) W 275 0 min 63 W/m 4,0 C -1,1 C 35,4 km/h (5 Bft)
08.03.2019 08:39 6,3 C 86 % 998,8 hPa 0,0 l/m 19,7 km/h (3 Bft) W 263 0 min 72 W/m 4,1 C -1,4 C 30,6 km/h (5 Bft)
08.03.2019 08:42 6,3 C 86 % 999,1 hPa 0,0 l/m 23,6 km/h (4 Bft) W 281 0 min 51 W/m 4,1 C -2,7 C 40,2 km/h (6 Bft)
08.03.2019 08:45 6,3 C 85 % 999,2 hPa 0,0 l/m 24,7 km/h (4 Bft) W-NW 284 0 min 84 W/m 4,0 C -3,1 C 41,8 km/h (6 Bft)
08.03.2019 08:48 6,4 C 84 % 999,3 hPa 0,0 l/m 19,7 km/h (3 Bft) W 277 0 min 105 W/m 3,9 C -1,2 C 38,6 km/h (6 Bft)
08.03.2019 08:51 6,4 C 84 % 999,4 hPa 0,0 l/m 16,3 km/h (3 Bft) W-SW 255 0 min 93 W/m 3,9 C 0,2 C 43,5 km/h (6 Bft)
08.03.2019 08:54 6,4 C 84 % 999,5 hPa 0,0 l/m 18,8 km/h (3 Bft) W 265 0 min 65 W/m 3,9 C -0,9 C 33,8 km/h (5 Bft)
08.03.2019 08:57 6,5 C 83 % 999,7 hPa 0,0 l/m 19,9 km/h (4 Bft) W-SW 250 0 min 84 W/m 3,8 C -1,2 C 30,6 km/h (5 Bft)
08.03.2019 09:00 6,6 C 82 % 999,7 hPa 0,0 l/m 20,9 km/h (4 Bft) W-SW 248 0 min 56 W/m 3,8 C -1,4 C 40,2 km/h (6 Bft)
08.03.2019 09:03 6,6 C 81 % 999,8 hPa 0,0 l/m 18,3 km/h (3 Bft) W-NW 284 0 min 76 W/m 3,6 C -0,4 C 30,6 km/h (5 Bft)
08.03.2019 09:06 6,6 C 81 % 1000,0 hPa 0,0 l/m 20,6 km/h (4 Bft) W 273 0 min 90 W/m 3,6 C -1,3 C 38,6 km/h (6 Bft)
08.03.2019 09:09 6,6 C 80 % 1000,1 hPa 0,0 l/m 21,2 km/h (4 Bft) W-NW 285 0 min 107 W/m 3,4 C -1,5 C 33,8 km/h (5 Bft)
08.03.2019 09:12 6,6 C 80 % 1000,2 hPa 0,0 l/m 16,7 km/h (3 Bft) W 268 0 min 72 W/m 3,4 C 0,2 C 32,2 km/h (5 Bft)
08.03.2019 09:15 6,7 C 79 % 1000,3 hPa 0,0 l/m 17,3 km/h (3 Bft) W-NW 283 0 min 90 W/m 3,3 C 0,1 C 29,0 km/h (5 Bft)
08.03.2019 09:18 6,7 C 79 % 1000,5 hPa 0,0 l/m 17,3 km/h (3 Bft) W-SW 258 0 min 83 W/m 3,3 C 0,1 C 30,6 km/h (5 Bft)
08.03.2019 09:21 6,7 C 78 % 1000,7 hPa 0,0 l/m 18,0 km/h (3 Bft) NW 305 0 min 100 W/m 3,1 C -0,2 C 41,8 km/h (6 Bft)
08.03.2019 09:24 6,7 C 78 % 1000,6 hPa 0,0 l/m 22,7 km/h (4 Bft) W-NW 284 0 min 91 W/m 3,1 C -1,9 C 33,8 km/h (5 Bft)
08.03.2019 09:27 6,7 C 76 % 1000,8 hPa 0,0 l/m 23,0 km/h (4 Bft) W-SW 255 0 min 114 W/m 2,8 C -2,0 C 38,6 km/h (6 Bft)
08.03.2019 09:30 6,7 C 76 % 1000,9 hPa 0,0 l/m 19,7 km/h (3 Bft) W-NW 298 0 min 135 W/m 2,8 C -0,9 C 33,8 km/h (5 Bft)
08.03.2019 09:33 6,8 C 76 % 1000,9 hPa 0,0 l/m 20,4 km/h (4 Bft) SW 223 0 min 123 W/m 2,9 C -1,0 C 32,2 km/h (5 Bft)
08.03.2019 09:36 6,8 C 76 % 1001,0 hPa 0,0 l/m 19,1 km/h (3 Bft) NW 307 0 min 111 W/m 2,9 C -0,5 C 30,6 km/h (5 Bft)
08.03.2019 09:39 6,8 C 76 % 1001,1 hPa 0,0 l/m 20,7 km/h (4 Bft) W 278 0 min 121 W/m 2,9 C -1,1 C 37,0 km/h (5 Bft)
08.03.2019 09:42 6,9 C 76 % 1001,2 hPa 0,0 l/m 19,5 km/h (3 Bft) W-SW 252 0 min 105 W/m 3,0 C -0,5 C 32,2 km/h (5 Bft)
08.03.2019 09:45 6,9 C 76 % 1001,3 hPa 0,0 l/m 21,4 km/h (4 Bft) NW 315 0 min 121 W/m 3,0 C -1,2 C 43,5 km/h (6 Bft)
08.03.2019 09:48 6,9 C 76 % 1001,3 hPa 0,0 l/m 19,2 km/h (3 Bft) W 267 0 min 70 W/m 3,0 C -0,4 C 30,6 km/h (5 Bft)
08.03.2019 09:51 6,9 C 76 % 1001,5 hPa 0,0 l/m 23,4 km/h (4 Bft) W-NW 290 0 min 151 W/m 3,0 C -1,9 C 49,9 km/h (7 Bft)
08.03.2019 09:54 7,1 C 76 % 1001,6 hPa 0,0 l/m 22,2 km/h (4 Bft) W-NW 291 0 min 132 W/m 3,2 C -1,2 C 37,0 km/h (5 Bft)
08.03.2019 09:57 7,1 C 77 % 1001,8 hPa 0,0 l/m 21,0 km/h (4 Bft) W 259 0 min 127 W/m 3,3 C -0,8 C 38,6 km/h (6 Bft)
08.03.2019 10:00 7,1 C 77 % 1001,9 hPa 0,0 l/m 25,5 km/h (4 Bft) W 268 0 min 128 W/m 3,3 C -2,2 C 46,7 km/h (6 Bft)
08.03.2019 10:03 7,1 C 78 % 1002,0 hPa 0,0 l/m 21,9 km/h (4 Bft) W-SW 253 3 min 225 W/m 3,5 C -1,1 C 37,0 km/h (5 Bft)
08.03.2019 10:06 7,0 C 80 % 1002,2 hPa 0,0 l/m 17,7 km/h (3 Bft) W-SW 248 0 min 123 W/m 3,8 C 0,3 C 35,4 km/h (5 Bft)
08.03.2019 10:09 6,8 C 80 % 1002,2 hPa 0,0 l/m 20,1 km/h (4 Bft) W 272 0 min 169 W/m 3,6 C -0,9 C 30,6 km/h (5 Bft)
08.03.2019 10:12 6,8 C 80 % 1002,2 hPa 0,0 l/m 15,8 km/h (3 Bft) W 265 0 min 169 W/m 3,6 C 0,9 C 30,6 km/h (5 Bft)
08.03.2019 10:15 6,8 C 81 % 1002,3 hPa 0,0 l/m 13,9 km/h (3 Bft) W 271 0 min 163 W/m 3,8 C 1,8 C 32,2 km/h (5 Bft)
08.03.2019 10:18 6,8 C 82 % 1002,4 hPa 0,0 l/m 14,8 km/h (3 Bft) NW 319 0 min 162 W/m 3,9 C 1,4 C 32,2 km/h (5 Bft)
08.03.2019 10:21 6,8 C 82 % 1002,5 hPa 0,0 l/m 13,6 km/h (3 Bft) W 263 0 min 172 W/m 3,9 C 2,0 C 29,0 km/h (5 Bft)
08.03.2019 10:24 6,8 C 82 % 1002,6 hPa 0,0 l/m 17,1 km/h (3 Bft) W-NW 300 0 min 204 W/m 3,9 C 0,3 C 27,4 km/h (5 Bft)
08.03.2019 10:27 6,9 C 82 % 1002,7 hPa 0,0 l/m 19,1 km/h (3 Bft) W 281 3 min 246 W/m 4,0 C -0,4 C 35,4 km/h (5 Bft)
08.03.2019 10:30 7,0 C 82 % 1002,7 hPa 0,0 l/m 20,0 km/h (4 Bft) W 260 3 min 295 W/m 4,1 C -0,6 C 32,2 km/h (5 Bft)
08.03.2019 10:33 7,2 C 82 % 1002,8 hPa 0,0 l/m 18,9 km/h (3 Bft) W-NW 288 0 min 158 W/m 4,3 C 0,1 C 37,0 km/h (5 Bft)
08.03.2019 10:36 7,2 C 81 % 1002,9 hPa 0,0 l/m 19,4 km/h (3 Bft) NW 309 0 min 169 W/m 4,2 C -0,1 C 33,8 km/h (5 Bft)
08.03.2019 10:39 7,2 C 79 % 1002,9 hPa 0,0 l/m 20,9 km/h (4 Bft) W-SW 253 0 min 141 W/m 3,8 C -0,7 C 32,2 km/h (5 Bft)
08.03.2019 10:42 7,2 C 76 % 1003,1 hPa 0,0 l/m 19,1 km/h (3 Bft) W 274 3 min 399 W/m 3,3 C 0,0 C 37,0 km/h (5 Bft)
08.03.2019 10:45 7,4 C 75 % 1003,1 hPa 0,0 l/m 16,1 km/h (3 Bft) W 259 3 min 394 W/m 3,3 C 1,5 C 27,4 km/h (5 Bft)
08.03.2019 10:48 7,7 C 75 % 1003,3 hPa 0,0 l/m 11,3 km/h (2 Bft) W 261 3 min 396 W/m 3,6 C 4,3 C 24,1 km/h (4 Bft)
08.03.2019 10:51 7,8 C 74 % 1003,4 hPa 0,0 l/m 17,7 km/h (3 Bft) W 266 3 min 424 W/m 3,5 C 1,3 C 33,8 km/h (5 Bft)
08.03.2019 10:54 7,9 C 73 % 1003,5 hPa 0,0 l/m 16,1 km/h (3 Bft) W 265 3 min 290 W/m 3,4 C 2,1 C 29,0 km/h (5 Bft)
08.03.2019 10:57 7,9 C 73 % 1003,5 hPa 0,0 l/m 17,3 km/h (3 Bft) SW 221 0 min 232 W/m 3,4 C 1,6 C 27,4 km/h (5 Bft)
08.03.2019 11:00 7,9 C 73 % 1003,6 hPa 0,0 l/m 10,8 km/h (2 Bft) W 272 3 min 265 W/m 3,4 C 4,8 C 19,3 km/h (3 Bft)
08.03.2019 11:03 7,9 C 73 % 1003,7 hPa 0,0 l/m 15,4 km/h (3 Bft) W 265 0 min 253 W/m 3,4 C 2,4 C 25,7 km/h (4 Bft)
08.03.2019 11:06 7,9 C 73 % 1003,8 hPa 0,0 l/m 15,6 km/h (3 Bft) W-NW 294 0 min 229 W/m 3,4 C 2,3 C 25,7 km/h (4 Bft)
08.03.2019 11:09 7,9 C 74 % 1003,9 hPa 0,0 l/m 19,3 km/h (3 Bft) W 273 0 min 232 W/m 3,6 C 0,8 C 38,6 km/h (6 Bft)
08.03.2019 11:12 7,9 C 75 % 1004,0 hPa 0,0 l/m 15,0 km/h (3 Bft) W-NW 288 0 min 220 W/m 3,7 C 2,6 C 30,6 km/h (5 Bft)
08.03.2019 11:15 7,8 C 74 % 1004,2 hPa 0,0 l/m 18,5 km/h (3 Bft) W-NW 284 0 min 262 W/m 3,5 C 1,0 C 33,8 km/h (5 Bft)
08.03.2019 11:18 7,8 C 75 % 1004,1 hPa 0,0 l/m 15,0 km/h (3 Bft) W 261 0 min 257 W/m 3,7 C 2,5 C 32,2 km/h (5 Bft)
08.03.2019 11:21 7,8 C 75 % 1004,2 hPa 0,0 l/m 13,8 km/h (3 Bft) W 271 0 min 237 W/m 3,7 C 3,0 C 24,1 km/h (4 Bft)
08.03.2019 11:24 7,8 C 74 % 1004,1 hPa 0,0 l/m 18,0 km/h (3 Bft) NW 308 3 min 334 W/m 3,5 C 1,2 C 30,6 km/h (5 Bft)
08.03.2019 11:27 7,8 C 74 % 1004,3 hPa 0,0 l/m 18,9 km/h (3 Bft) W 260 3 min 352 W/m 3,5 C 0,8 C 29,0 km/h (5 Bft)
08.03.2019 11:30 8,0 C 75 % 1004,2 hPa 0,0 l/m 12,3 km/h (2 Bft) W 281 3 min 381 W/m 3,8 C 4,0 C 22,5 km/h (4 Bft)
08.03.2019 11:33 8,2 C 74 % 1004,3 hPa 0,0 l/m 15,9 km/h (3 Bft) W-NW 284 3 min 427 W/m 3,8 C 2,6 C 32,2 km/h (5 Bft)
08.03.2019 11:36 8,2 C 73 % 1004,3 hPa 0,0 l/m 13,1 km/h (3 Bft) W-NW 284 3 min 283 W/m 3,7 C 3,9 C 22,5 km/h (4 Bft)
08.03.2019 11:39 8,3 C 72 % 1004,5 hPa 0,0 l/m 16,4 km/h (3 Bft) W 261 0 min 227 W/m 3,6 C 2,5 C 30,6 km/h (5 Bft)
08.03.2019 11:42 8,2 C 73 % 1004,5 hPa 0,0 l/m 15,9 km/h (3 Bft) W 271 3 min 281 W/m 3,7 C 2,6 C 27,4 km/h (5 Bft)
08.03.2019 11:45 8,2 C 74 % 1004,6 hPa 0,0 l/m 14,5 km/h (3 Bft) W-SW 255 0 min 185 W/m 3,8 C 3,2 C 25,7 km/h (4 Bft)
08.03.2019 11:48 8,1 C 74 % 1004,7 hPa 0,0 l/m 17,2 km/h (3 Bft) W 274 3 min 338 W/m 3,8 C 1,9 C 32,2 km/h (5 Bft)
08.03.2019 11:51 7,9 C 74 % 1004,7 hPa 0,0 l/m 18,9 km/h (3 Bft) W 273 0 min 237 W/m 3,6 C 1,0 C 32,2 km/h (5 Bft)
08.03.2019 11:54 7,9 C 75 % 1004,8 hPa 0,0 l/m 19,0 km/h (3 Bft) W 273 0 min 237 W/m 3,7 C 0,9 C 33,8 km/h (5 Bft)
08.03.2019 11:57 7,9 C 75 % 1005,0 hPa 0,0 l/m 16,3 km/h (3 Bft) W-NW 288 0 min 255 W/m 3,7 C 2,0 C 29,0 km/h (5 Bft)
08.03.2019 12:00 7,9 C 76 % 1005,0 hPa 0,0 l/m 15,9 km/h (3 Bft) W-NW 282 3 min 327 W/m 3,9 C 2,2 C 30,6 km/h (5 Bft)
08.03.2019 12:03 7,9 C 76 % 1005,0 hPa 0,0 l/m 17,0 km/h (3 Bft) W 269 0 min 218 W/m 3,9 C 1,7 C 30,6 km/h (5 Bft)
08.03.2019 12:06 7,9 C 76 % 1005,1 hPa 0,0 l/m 20,1 km/h (4 Bft) W 267 3 min 413 W/m 3,9 C 0,5 C 33,8 km/h (5 Bft)
08.03.2019 12:09 7,8 C 76 % 1005,1 hPa 0,0 l/m 19,0 km/h (3 Bft) W 275 0 min 207 W/m 3,8 C 0,8 C 38,6 km/h (6 Bft)
08.03.2019 12:12 7,9 C 75 % 1005,3 hPa 0,0 l/m 17,9 km/h (3 Bft) W 271 3 min 506 W/m 3,7 C 1,4 C 32,2 km/h (5 Bft)
08.03.2019 12:15 8,2 C 75 % 1005,4 hPa 0,0 l/m 15,3 km/h (3 Bft) W 281 3 min 499 W/m 4,0 C 2,8 C 25,7 km/h (4 Bft)
08.03.2019 12:18 8,4 C 74 % 1005,5 hPa 0,0 l/m 17,0 km/h (3 Bft) W-NW 288 3 min 492 W/m 4,0 C 2,3 C 33,8 km/h (5 Bft)
08.03.2019 12:21 8,4 C 73 % 1005,6 hPa 0,0 l/m 17,9 km/h (3 Bft) W-NW 294 3 min 499 W/m 3,8 C 2,0 C 30,6 km/h (5 Bft)
08.03.2019 12:24 8,5 C 72 % 1005,7 hPa 0,0 l/m 15,2 km/h (3 Bft) W-SW 245 3 min 496 W/m 3,7 C 3,2 C 27,4 km/h (5 Bft)
08.03.2019 12:27 8,4 C 71 % 1005,7 hPa 0,0 l/m 16,9 km/h (3 Bft) W 263 3 min 497 W/m 3,5 C 2,4 C 30,6 km/h (5 Bft)
08.03.2019 12:30 8,4 C 71 % 1005,8 hPa 0,0 l/m 19,8 km/h (3 Bft) W-SW 254 3 min 501 W/m 3,5 C 1,3 C 33,8 km/h (5 Bft)
08.03.2019 12:33 8,6 C 71 % 1005,8 hPa 0,0 l/m 19,6 km/h (3 Bft) W-NW 282 3 min 497 W/m 3,6 C 1,6 C 32,2 km/h (5 Bft)
08.03.2019 12:36 8,6 C 71 % 1006,0 hPa 0,0 l/m 18,9 km/h (3 Bft) W-SW 258 3 min 497 W/m 3,6 C 1,9 C 30,6 km/h (5 Bft)
08.03.2019 12:39 8,6 C 70 % 1006,1 hPa 0,0 l/m 19,9 km/h (4 Bft) W 264 3 min 503 W/m 3,4 C 1,5 C 38,6 km/h (6 Bft)
08.03.2019 12:42 8,7 C 69 % 1006,1 hPa 0,0 l/m 18,6 km/h (3 Bft) W 269 3 min 504 W/m 3,3 C 2,1 C 33,8 km/h (5 Bft)
08.03.2019 12:45 8,7 C 70 % 1006,2 hPa 0,0 l/m 17,8 km/h (3 Bft) W 261 3 min 504 W/m 3,5 C 2,4 C 29,0 km/h (5 Bft)
08.03.2019 12:48 8,7 C 69 % 1006,3 hPa 0,0 l/m 17,7 km/h (3 Bft) W-SW 254 3 min 504 W/m 3,3 C 2,4 C 29,0 km/h (5 Bft)
08.03.2019 12:51 8,7 C 68 % 1006,4 hPa 0,0 l/m 21,2 km/h (4 Bft) W 278 3 min 513 W/m 3,1 C 1,2 C 30,6 km/h (5 Bft)
08.03.2019 12:54 8,8 C 68 % 1006,5 hPa 0,0 l/m 16,1 km/h (3 Bft) W-SW 254 3 min 531 W/m 3,2 C 3,2 C 25,7 km/h (4 Bft)
08.03.2019 12:57 8,7 C 68 % 1006,5 hPa 0,0 l/m 18,2 km/h (3 Bft) W 275 3 min 531 W/m 3,1 C 2,3 C 30,6 km/h (5 Bft)
08.03.2019 13:00 8,6 C 68 % 1006,6 hPa 0,0 l/m 18,3 km/h (3 Bft) W-SW 257 0 min 186 W/m 3,0 C 2,1 C 33,8 km/h (5 Bft)
08.03.2019 13:03 8,4 C 69 % 1006,6 hPa 0,0 l/m 15,8 km/h (3 Bft) W 281 0 min 186 W/m 3,0 C 2,8 C 25,7 km/h (4 Bft)
08.03.2019 13:06 8,3 C 70 % 1006,6 hPa 0,0 l/m 15,8 km/h (3 Bft) W 266 0 min 246 W/m 3,2 C 2,7 C 29,0 km/h (5 Bft)
08.03.2019 13:09 8,2 C 70 % 1006,7 hPa 0,0 l/m 19,4 km/h (3 Bft) W 267 3 min 504 W/m 3,1 C 1,2 C 29,0 km/h (5 Bft)
08.03.2019 13:12 8,2 C 71 % 1006,7 hPa 0,0 l/m 16,6 km/h (3 Bft) W-NW 288 3 min 533 W/m 3,3 C 2,3 C 32,2 km/h (5 Bft)
08.03.2019 13:15 8,3 C 71 % 1006,8 hPa 0,0 l/m 14,3 km/h (3 Bft) W-SW 254 0 min 278 W/m 3,4 C 3,4 C 29,0 km/h (5 Bft)
08.03.2019 13:18 8,3 C 72 % 1006,8 hPa 0,0 l/m 16,0 km/h (3 Bft) W 263 0 min 264 W/m 3,6 C 2,6 C 24,1 km/h (4 Bft)
08.03.2019 13:21 8,2 C 72 % 1006,8 hPa 0,0 l/m 13,3 km/h (3 Bft) SW 216 0 min 248 W/m 3,5 C 3,8 C 20,9 km/h (4 Bft)
08.03.2019 13:24 8,2 C 73 % 1006,8 hPa 0,0 l/m 14,8 km/h (3 Bft) W 264 0 min 225 W/m 3,7 C 3,0 C 29,0 km/h (5 Bft)
08.03.2019 13:27 8,3 C 74 % 1006,8 hPa 0,0 l/m 13,2 km/h (3 Bft) W 262 3 min 406 W/m 3,9 C 3,9 C 25,7 km/h (4 Bft)
08.03.2019 13:30 8,5 C 73 % 1006,8 hPa 0,0 l/m 19,0 km/h (3 Bft) W 268 3 min 610 W/m 3,9 C 1,7 C 32,2 km/h (5 Bft)
08.03.2019 13:33 8,7 C 73 % 1006,8 hPa 0,0 l/m 18,1 km/h (3 Bft) SW 235 3 min 334 W/m 4,1 C 2,3 C 29,0 km/h (5 Bft)
08.03.2019 13:36 8,6 C 72 % 1006,9 hPa 0,0 l/m 18,9 km/h (3 Bft) W 271 0 min 202 W/m 3,8 C 1,9 C 30,6 km/h (5 Bft)
08.03.2019 13:39 8,4 C 73 % 1006,8 hPa 0,0 l/m 17,0 km/h (3 Bft) W-SW 243 0 min 221 W/m 3,8 C 2,3 C 30,6 km/h (5 Bft)
08.03.2019 13:42 8,3 C 74 % 1007,0 hPa 0,0 l/m 16,2 km/h (3 Bft) W 274 0 min 171 W/m 3,9 C 2,6 C 29,0 km/h (5 Bft)
08.03.2019 13:45 8,2 C 73 % 1007,0 hPa 0,0 l/m 17,2 km/h (3 Bft) SW 236 0 min 192 W/m 3,7 C 2,0 C 27,4 km/h (5 Bft)
08.03.2019 13:48 8,1 C 73 % 1007,2 hPa 0,0 l/m 16,7 km/h (3 Bft) W-SW 254 0 min 186 W/m 3,6 C 2,1 C 27,4 km/h (5 Bft)
08.03.2019 13:51 8,0 C 74 % 1007,2 hPa 0,0 l/m 16,3 km/h (3 Bft) W 265 0 min 214 W/m 3,7 C 2,1 C 25,7 km/h (4 Bft)
08.03.2019 13:54 8,0 C 74 % 1007,2 hPa 0,0 l/m 14,6 km/h (3 Bft) W-SW 244 0 min 221 W/m 3,7 C 2,9 C 24,1 km/h (4 Bft)
08.03.2019 13:57 8,0 C 75 % 1007,3 hPa 0,0 l/m 15,0 km/h (3 Bft) W 269 0 min 216 W/m 3,8 C 2,7 C 30,6 km/h (5 Bft)
08.03.2019 14:00 8,1 C 75 % 1007,2 hPa 0,0 l/m 18,3 km/h (3 Bft) W 267 0 min 243 W/m 3,9 C 1,5 C 32,2 km/h (5 Bft)
08.03.2019 14:03 7,9 C 75 % 1007,3 hPa 0,0 l/m 19,3 km/h (3 Bft) W 259 0 min 183 W/m 3,7 C 0,8 C 30,6 km/h (5 Bft)
08.03.2019 14:06 7,8 C 74 % 1007,2 hPa 0,0 l/m 19,3 km/h (3 Bft) W 267 3 min 262 W/m 3,5 C 0,7 C 30,6 km/h (5 Bft)
08.03.2019 14:09 7,8 C 74 % 1007,3 hPa 0,0 l/m 17,2 km/h (3 Bft) W-SW 250 0 min 223 W/m 3,5 C 1,5 C 30,6 km/h (5 Bft)
08.03.2019 14:12 7,7 C 72 % 1007,3 hPa 0,0 l/m 18,7 km/h (3 Bft) W 265 0 min 174 W/m 3,0 C 0,8 C 32,2 km/h (5 Bft)
08.03.2019 14:15 7,7 C 74 % 1007,3 hPa 0,0 l/m 20,2 km/h (4 Bft) W 265 0 min 162 W/m 3,4 C 0,2 C 32,2 km/h (5 Bft)
08.03.2019 14:18 7,7 C 74 % 1007,5 hPa 0,0 l/m 14,6 km/h (3 Bft) W 269 0 min 156 W/m 3,4 C 2,5 C 24,1 km/h (4 Bft)
08.03.2019 14:21 7,7 C 76 % 1007,4 hPa 0,0 l/m 20,4 km/h (4 Bft) W 259 0 min 153 W/m 3,7 C 0,2 C 38,6 km/h (6 Bft)
08.03.2019 14:24 7,6 C 76 % 1007,5 hPa 0,0 l/m 17,2 km/h (3 Bft) W 263 0 min 158 W/m 3,6 C 1,3 C 33,8 km/h (5 Bft)
08.03.2019 14:27 7,6 C 76 % 1007,6 hPa 0,0 l/m 18,1 km/h (3 Bft) W-SW 257 0 min 165 W/m 3,6 C 0,9 C 32,2 km/h (5 Bft)
08.03.2019 14:30 7,4 C 74 % 1007,6 hPa 0,0 l/m 17,0 km/h (3 Bft) W-SW 248 0 min 153 W/m 3,1 C 1,1 C 27,4 km/h (5 Bft)
08.03.2019 14:33 7,4 C 74 % 1007,6 hPa 0,0 l/m 18,2 km/h (3 Bft) W 265 0 min 171 W/m 3,1 C 0,6 C 30,6 km/h (5 Bft)
08.03.2019 14:36 7,5 C 74 % 1007,7 hPa 0,0 l/m 16,2 km/h (3 Bft) NW 306 0 min 160 W/m 3,2 C 1,6 C 24,1 km/h (4 Bft)
08.03.2019 14:39 7,6 C 75 % 1007,7 hPa 0,0 l/m 16,2 km/h (3 Bft) W 274 0 min 193 W/m 3,5 C 1,7 C 27,4 km/h (5 Bft)
08.03.2019 14:42 7,7 C 75 % 1007,8 hPa 0,0 l/m 16,1 km/h (3 Bft) SW 224 0 min 183 W/m 3,6 C 1,9 C 29,0 km/h (5 Bft)
08.03.2019 14:45 7,6 C 76 % 1007,9 hPa 0,0 l/m 17,3 km/h (3 Bft) W-NW 296 0 min 171 W/m 3,6 C 1,2 C 32,2 km/h (5 Bft)
08.03.2019 14:48 7,6 C 76 % 1008,0 hPa 0,0 l/m 17,4 km/h (3 Bft) W 273 0 min 183 W/m 3,6 C 1,2 C 29,0 km/h (5 Bft)
08.03.2019 14:51 7,6 C 76 % 1007,9 hPa 0,0 l/m 13,4 km/h (3 Bft) SW 235 0 min 186 W/m 3,6 C 3,0 C 20,9 km/h (4 Bft)
08.03.2019 14:54 7,6 C 75 % 1008,1 hPa 0,0 l/m 15,3 km/h (3 Bft) W 280 0 min 155 W/m 3,5 C 2,1 C 29,0 km/h (5 Bft)
08.03.2019 14:57 7,5 C 75 % 1008,1 hPa 0,0 l/m 15,7 km/h (3 Bft) S-SW 196 0 min 192 W/m 3,4 C 1,8 C 29,0 km/h (5 Bft)
08.03.2019 15:00 7,4 C 75 % 1008,1 hPa 0,0 l/m 16,0 km/h (3 Bft) W-SW 250 0 min 200 W/m 3,3 C 1,5 C 25,7 km/h (4 Bft)
08.03.2019 15:03 7,5 C 75 % 1008,1 hPa 0,0 l/m 14,2 km/h (3 Bft) W-SW 254 0 min 167 W/m 3,4 C 2,5 C 22,5 km/h (4 Bft)
08.03.2019 15:06 7,6 C 75 % 1008,1 hPa 0,0 l/m 14,9 km/h (3 Bft) W-SW 255 0 min 149 W/m 3,5 C 2,3 C 24,1 km/h (4 Bft)
08.03.2019 15:09 7,6 C 75 % 1008,1 hPa 0,0 l/m 15,6 km/h (3 Bft) W-SW 252 0 min 153 W/m 3,5 C 2,0 C 24,1 km/h (4 Bft)
08.03.2019 15:12 7,6 C 75 % 1008,2 hPa 0,0 l/m 13,8 km/h (3 Bft) W 259 0 min 142 W/m 3,5 C 2,8 C 22,5 km/h (4 Bft)
08.03.2019 15:15 7,6 C 75 % 1008,2 hPa 0,0 l/m 13,7 km/h (3 Bft) W-SW 257 0 min 163 W/m 3,5 C 2,9 C 24,1 km/h (4 Bft)
08.03.2019 15:18 7,7 C 76 % 1008,2 hPa 0,0 l/m 13,9 km/h (3 Bft) W 259 3 min 237 W/m 3,7 C 2,9 C 20,9 km/h (4 Bft)
08.03.2019 15:21 7,8 C 76 % 1008,3 hPa 0,0 l/m 13,1 km/h (3 Bft) W-SW 248 3 min 244 W/m 3,8 C 3,4 C 22,5 km/h (4 Bft)
08.03.2019 15:24 8,1 C 76 % 1008,3 hPa 0,0 l/m 14,6 km/h (3 Bft) SW 234 3 min 323 W/m 4,1 C 3,0 C 20,9 km/h (4 Bft)
08.03.2019 15:27 8,3 C 76 % 1008,3 hPa 0,0 l/m 16,4 km/h (3 Bft) SW 219 3 min 359 W/m 4,3 C 2,5 C 24,1 km/h (4 Bft)
08.03.2019 15:30 8,4 C 75 % 1008,2 hPa 0,0 l/m 19,8 km/h (3 Bft) W-NW 286 3 min 323 W/m 4,2 C 1,3 C 29,0 km/h (5 Bft)
08.03.2019 15:33 8,5 C 75 % 1008,3 hPa 0,0 l/m 12,8 km/h (3 Bft) SW 227 3 min 329 W/m 4,3 C 4,4 C 24,1 km/h (4 Bft)
08.03.2019 15:36 8,7 C 74 % 1008,3 hPa 0,0 l/m 12,9 km/h (3 Bft) W 275 3 min 318 W/m 4,3 C 4,6 C 20,9 km/h (4 Bft)
08.03.2019 15:39 8,7 C 74 % 1008,3 hPa 0,0 l/m 14,8 km/h (3 Bft) W 263 3 min 306 W/m 4,3 C 3,6 C 22,5 km/h (4 Bft)
08.03.2019 15:42 8,7 C 73 % 1008,3 hPa 0,0 l/m 13,0 km/h (3 Bft) S-SW 211 3 min 304 W/m 4,1 C 4,5 C 22,5 km/h (4 Bft)
08.03.2019 15:45 8,7 C 73 % 1008,3 hPa 0,0 l/m 12,2 km/h (2 Bft) W-NW 284 3 min 295 W/m 4,1 C 4,9 C 20,9 km/h (4 Bft)
08.03.2019 15:48 8,7 C 72 % 1008,3 hPa 0,0 l/m 11,3 km/h (2 Bft) W 269 3 min 290 W/m 3,9 C 5,4 C 24,1 km/h (4 Bft)
08.03.2019 15:51 8,7 C 70 % 1008,4 hPa 0,0 l/m 13,8 km/h (3 Bft) SW 221 3 min 285 W/m 3,5 C 4,1 C 25,7 km/h (4 Bft)
08.03.2019 15:54 8,6 C 69 % 1008,4 hPa 0,0 l/m 15,9 km/h (3 Bft) W 265 3 min 274 W/m 3,2 C 3,0 C 25,7 km/h (4 Bft)
08.03.2019 15:57 8,7 C 70 % 1008,5 hPa 0,0 l/m 13,3 km/h (3 Bft) W 259 3 min 255 W/m 3,5 C 4,4 C 19,3 km/h (3 Bft)
08.03.2019 16:00 8,7 C 69 % 1008,6 hPa 0,0 l/m 10,6 km/h (2 Bft) SW 233 0 min 153 W/m 3,3 C 5,8 C 17,7 km/h (3 Bft)
08.03.2019 16:03 8,6 C 69 % 1008,6 hPa 0,0 l/m 15,8 km/h (3 Bft) W 273 0 min 137 W/m 3,2 C 3,1 C 24,1 km/h (4 Bft)
08.03.2019 16:06 8,4 C 71 % 1008,6 hPa 0,0 l/m 13,7 km/h (3 Bft) W-SW 238 0 min 118 W/m 3,5 C 3,8 C 22,5 km/h (4 Bft)
08.03.2019 16:09 8,2 C 71 % 1008,6 hPa 0,0 l/m 12,5 km/h (2 Bft) W 265 0 min 97 W/m 3,3 C 4,2 C 24,1 km/h (4 Bft)
08.03.2019 16:12 8,1 C 71 % 1008,6 hPa 0,0 l/m 12,7 km/h (3 Bft) W 278 0 min 74 W/m 3,2 C 4,0 C 20,9 km/h (4 Bft)
08.03.2019 16:15 7,9 C 71 % 1008,7 hPa 0,0 l/m 14,0 km/h (3 Bft) W-SW 251 0 min 114 W/m 3,0 C 3,1 C 20,9 km/h (4 Bft)
08.03.2019 16:18 7,8 C 71 % 1008,7 hPa 0,0 l/m 12,9 km/h (3 Bft) W 271 0 min 114 W/m 2,9 C 3,5 C 19,3 km/h (3 Bft)
08.03.2019 16:21 7,8 C 71 % 1008,7 hPa 0,0 l/m 14,2 km/h (3 Bft) W 269 0 min 104 W/m 2,9 C 2,8 C 27,4 km/h (5 Bft)
08.03.2019 16:24 7,8 C 72 % 1008,8 hPa 0,0 l/m 11,6 km/h (2 Bft) W 268 0 min 98 W/m 3,1 C 4,2 C 19,3 km/h (3 Bft)
08.03.2019 16:27 7,8 C 72 % 1008,7 hPa 0,0 l/m 10,6 km/h (2 Bft) W 265 0 min 86 W/m 3,1 C 4,8 C 17,7 km/h (3 Bft)
08.03.2019 16:30 7,7 C 73 % 1008,7 hPa 0,0 l/m 12,2 km/h (2 Bft) W-NW 292 0 min 84 W/m 3,2 C 3,8 C 19,3 km/h (3 Bft)
08.03.2019 16:33 7,7 C 73 % 1008,8 hPa 0,0 l/m 13,8 km/h (3 Bft) W 270 0 min 79 W/m 3,2 C 2,9 C 20,9 km/h (4 Bft)
08.03.2019 16:36 7,7 C 73 % 1008,7 hPa 0,0 l/m 12,0 km/h (2 Bft) W 272 0 min 54 W/m 3,2 C 3,9 C 17,7 km/h (3 Bft)
08.03.2019 16:39 7,6 C 73 % 1008,8 hPa 0,0 l/m 16,0 km/h (3 Bft) SW 228 0 min 46 W/m 3,1 C 1,8 C 24,1 km/h (4 Bft)
08.03.2019 16:42 7,5 C 73 % 1008,8 hPa 0,0 l/m 14,7 km/h (3 Bft) W-SW 257 0 min 47 W/m 3,0 C 2,2 C 22,5 km/h (4 Bft)
08.03.2019 16:45 7,5 C 74 % 1008,8 hPa 0,0 l/m 12,6 km/h (3 Bft) SW 236 0 min 53 W/m 3,2 C 3,3 C 20,9 km/h (4 Bft)
08.03.2019 16:48 7,5 C 75 % 1008,8 hPa 0,0 l/m 10,9 km/h (2 Bft) W 260 0 min 49 W/m 3,4 C 4,3 C 19,3 km/h (3 Bft)
08.03.2019 16:51 7,6 C 76 % 1008,8 hPa 0,0 l/m 14,4 km/h (3 Bft) W-SW 247 0 min 51 W/m 3,6 C 2,5 C 20,9 km/h (4 Bft)
08.03.2019 16:54 7,5 C 77 % 1008,9 hPa 0,0 l/m 11,1 km/h (2 Bft) W-SW 252 0 min 42 W/m 3,7 C 4,2 C 20,9 km/h (4 Bft)
08.03.2019 16:57 7,5 C 78 % 1009,0 hPa 0,0 l/m 12,0 km/h (2 Bft) SW 231 0 min 39 W/m 3,9 C 3,6 C 20,9 km/h (4 Bft)
08.03.2019 17:00 7,4 C 78 % 1008,9 hPa 0,0 l/m 13,3 km/h (3 Bft) W-SW 245 0 min 33 W/m 3,8 C 2,8 C 25,7 km/h (4 Bft)
08.03.2019 17:03 7,4 C 78 % 1008,9 hPa 0,0 l/m 14,2 km/h (3 Bft) W 266 0 min 39 W/m 3,8 C 2,4 C 24,1 km/h (4 Bft)
08.03.2019 17:06 7,3 C 78 % 1008,9 hPa 0,0 l/m 13,0 km/h (3 Bft) W-NW 296 0 min 42 W/m 3,7 C 2,9 C 19,3 km/h (3 Bft)
08.03.2019 17:09 7,3 C 78 % 1008,8 hPa 0,0 l/m 12,1 km/h (2 Bft) W-SW 255 0 min 47 W/m 3,7 C 3,3 C 20,9 km/h (4 Bft)
08.03.2019 17:12 7,2 C 78 % 1008,8 hPa 0,0 l/m 14,2 km/h (3 Bft) W-SW 257 0 min 40 W/m 3,6 C 2,1 C 20,9 km/h (4 Bft)
08.03.2019 17:15 7,2 C 78 % 1008,8 hPa 0,0 l/m 12,5 km/h (2 Bft) S-SW 205 0 min 40 W/m 3,6 C 3,0 C 20,9 km/h (4 Bft)
08.03.2019 17:18 7,2 C 78 % 1008,8 hPa 0,0 l/m 12,4 km/h (2 Bft) W-SW 244 0 min 35 W/m 3,6 C 3,1 C 27,4 km/h (5 Bft)
08.03.2019 17:21 7,2 C 77 % 1008,7 hPa 0,0 l/m 12,8 km/h (3 Bft) W 278 0 min 37 W/m 3,4 C 2,8 C 20,9 km/h (4 Bft)
08.03.2019 17:24 7,1 C 77 % 1008,7 hPa 0,0 l/m 12,8 km/h (3 Bft) SW 236 0 min 40 W/m 3,3 C 2,7 C 19,3 km/h (3 Bft)
08.03.2019 17:27 7,1 C 76 % 1008,8 hPa 0,0 l/m 14,1 km/h (3 Bft) W 272 0 min 42 W/m 3,2 C 2,1 C 24,1 km/h (4 Bft)
08.03.2019 17:30 7,1 C 76 % 1008,7 hPa 0,0 l/m 12,4 km/h (2 Bft) W-SW 252 0 min 35 W/m 3,2 C 3,0 C 24,1 km/h (4 Bft)
08.03.2019 17:33 7,1 C 76 % 1008,7 hPa 0,0 l/m 13,0 km/h (3 Bft) W-SW 252 0 min 32 W/m 3,2 C 2,6 C 20,9 km/h (4 Bft)
08.03.2019 17:36 7,1 C 76 % 1008,7 hPa 0,0 l/m 11,2 km/h (2 Bft) W-SW 243 0 min 30 W/m 3,2 C 3,6 C 20,9 km/h (4 Bft)
08.03.2019 17:39 7,1 C 76 % 1008,6 hPa 0,0 l/m 14,1 km/h (3 Bft) W 267 0 min 28 W/m 3,2 C 2,1 C 25,7 km/h (4 Bft)
08.03.2019 17:42 7,1 C 76 % 1008,6 hPa 0,0 l/m 10,3 km/h (2 Bft) W 267 0 min 25 W/m 3,2 C 4,2 C 20,9 km/h (4 Bft)
08.03.2019 17:45 7,0 C 77 % 1008,6 hPa 0,0 l/m 13,8 km/h (3 Bft) SW 236 0 min 21 W/m 3,2 C 2,1 C 24,1 km/h (4 Bft)
08.03.2019 17:48 7,0 C 77 % 1008,4 hPa 0,0 l/m 11,2 km/h (2 Bft) W 277 0 min 16 W/m 3,2 C 3,5 C 19,3 km/h (3 Bft)
08.03.2019 17:51 6,9 C 77 % 1008,5 hPa 0,0 l/m 12,0 km/h (2 Bft) SW 217 0 min 12 W/m 3,2 C 2,9 C 16,1 km/h (3 Bft)
08.03.2019 17:54 6,9 C 77 % 1008,5 hPa 0,0 l/m 8,4 km/h (2 Bft) W-NW 288 0 min 9 W/m 3,2 C 5,3 C 19,3 km/h (3 Bft)
08.03.2019 17:57 6,9 C 78 % 1008,6 hPa 0,0 l/m 13,5 km/h (3 Bft) W-NW 301 0 min 7 W/m 3,3 C 2,1 C 20,9 km/h (4 Bft)
08.03.2019 18:00 6,9 C 78 % 1008,6 hPa 0,0 l/m 11,1 km/h (2 Bft) SW 225 0 min 5 W/m 3,3 C 3,5 C 19,3 km/h (3 Bft)
08.03.2019 18:03 6,8 C 78 % 1008,7 hPa 0,0 l/m 11,1 km/h (2 Bft) W 260 0 min 5 W/m 3,2 C 3,4 C 17,7 km/h (3 Bft)
08.03.2019 18:06 6,8 C 78 % 1008,7 hPa 0,0 l/m 12,6 km/h (3 Bft) W-SW 244 0 min 0 W/m 3,2 C 2,5 C 19,3 km/h (3 Bft)
08.03.2019 18:09 6,8 C 78 % 1008,7 hPa 0,0 l/m 13,2 km/h (3 Bft) W-SW 252 0 min 0 W/m 3,2 C 2,2 C 20,9 km/h (4 Bft)
08.03.2019 18:12 6,8 C 79 % 1008,7 hPa 0,0 l/m 12,6 km/h (3 Bft) W-NW 282 0 min 0 W/m 3,4 C 2,5 C 24,1 km/h (4 Bft)
08.03.2019 18:15 6,8 C 79 % 1008,8 hPa 0,0 l/m 13,5 km/h (3 Bft) W-SW 238 0 min 0 W/m 3,4 C 2,0 C 20,9 km/h (4 Bft)
08.03.2019 18:18 6,7 C 79 % 1008,7 hPa 0,0 l/m 10,9 km/h (2 Bft) W 260 0 min 0 W/m 3,3 C 3,4 C 19,3 km/h (3 Bft)
08.03.2019 18:21 6,7 C 79 % 1008,7 hPa 0,0 l/m 10,1 km/h (2 Bft) W-SW 238 0 min 0 W/m 3,3 C 3,9 C 17,7 km/h (3 Bft)
08.03.2019 18:24 6,7 C 80 % 1008,7 hPa 0,0 l/m 8,2 km/h (2 Bft) S-SW 213 0 min 0 W/m 3,5 C 5,2 C 14,5 km/h (3 Bft)
08.03.2019 18:27 6,7 C 80 % 1008,7 hPa 0,0 l/m 9,5 km/h (2 Bft) W-SW 246 0 min 0 W/m 3,5 C 4,3 C 16,1 km/h (3 Bft)
08.03.2019 18:30 6,7 C 80 % 1008,8 hPa 0,0 l/m 9,9 km/h (2 Bft) SW 233 0 min 0 W/m 3,5 C 4,0 C 17,7 km/h (3 Bft)
08.03.2019 18:33 6,7 C 81 % 1008,7 hPa 0,0 l/m 10,9 km/h (2 Bft) SW 232 0 min 0 W/m 3,7 C 3,4 C 19,3 km/h (3 Bft)
08.03.2019 18:36 6,7 C 81 % 1008,8 hPa 0,0 l/m 9,2 km/h (2 Bft) SW 230 0 min 0 W/m 3,7 C 4,5 C 17,7 km/h (3 Bft)
08.03.2019 18:39 6,7 C 81 % 1008,8 hPa 0,0 l/m 8,8 km/h (2 Bft) W-SW 239 0 min 0 W/m 3,7 C 4,8 C 14,5 km/h (3 Bft)
08.03.2019 18:42 6,7 C 81 % 1008,8 hPa 0,0 l/m 7,7 km/h (2 Bft) SW 235 0 min 0 W/m 3,7 C 5,6 C 12,9 km/h (3 Bft)
08.03.2019 18:45 6,6 C 81 % 1008,8 hPa 0,0 l/m 6,3 km/h (2 Bft) SW 232 0 min 0 W/m 3,6 C 6,6 C 11,3 km/h (2 Bft)
08.03.2019 18:48 6,6 C 82 % 1008,7 hPa 0,0 l/m 9,1 km/h (2 Bft) SW 234 0 min 0 W/m 3,8 C 4,5 C 17,7 km/h (3 Bft)
08.03.2019 18:51 6,6 C 82 % 1008,7 hPa 0,0 l/m 7,4 km/h (2 Bft) SW 232 0 min 0 W/m 3,8 C 5,8 C 11,3 km/h (2 Bft)
08.03.2019 18:54 6,6 C 82 % 1008,7 hPa 0,0 l/m 8,5 km/h (2 Bft) W-SW 242 0 min 0 W/m 3,8 C 4,9 C 12,9 km/h (3 Bft)
08.03.2019 18:57 6,6 C 82 % 1008,7 hPa 0,0 l/m 6,5 km/h (2 Bft) SW 233 0 min 0 W/m 3,8 C 6,5 C 14,5 km/h (3 Bft)
08.03.2019 19:00 6,6 C 82 % 1008,7 hPa 0,0 l/m 5,9 km/h (2 Bft) W-SW 238 0 min 0 W/m 3,8 C 6,6 C 9,7 km/h (2 Bft)
08.03.2019 19:03 6,6 C 82 % 1008,7 hPa 0,0 l/m 5,3 km/h (1 Bft) W-SW 238 0 min 0 W/m 3,8 C 6,6 C 8,0 km/h (2 Bft)
08.03.2019 19:06 6,5 C 82 % 1008,6 hPa 0,0 l/m 5,8 km/h (2 Bft) W 275 0 min 0 W/m 3,7 C 6,5 C 12,9 km/h (3 Bft)
08.03.2019 19:09 6,5 C 82 % 1008,7 hPa 0,0 l/m 6,8 km/h (2 Bft) SW 228 0 min 0 W/m 3,7 C 6,2 C 12,9 km/h (3 Bft)
08.03.2019 19:12 6,5 C 83 % 1008,6 hPa 0,0 l/m 8,4 km/h (2 Bft) W 261 0 min 0 W/m 3,8 C 4,9 C 14,5 km/h (3 Bft)
08.03.2019 19:15 6,4 C 83 % 1008,6 hPa 0,0 l/m 6,3 km/h (2 Bft) W 259 0 min 0 W/m 3,7 C 6,4 C 12,9 km/h (3 Bft)
08.03.2019 19:18 6,4 C 83 % 1008,6 hPa 0,0 l/m 7,0 km/h (2 Bft) SW 232 0 min 0 W/m 3,7 C 5,9 C 11,3 km/h (2 Bft)
08.03.2019 19:21 6,4 C 83 % 1008,6 hPa 0,0 l/m 5,4 km/h (2 Bft) SW 232 0 min 0 W/m 3,7 C 6,4 C 9,7 km/h (2 Bft)
08.03.2019 19:24 6,4 C 84 % 1008,6 hPa 0,0 l/m 7,4 km/h (2 Bft) SW 231 0 min 0 W/m 3,9 C 5,6 C 11,3 km/h (2 Bft)
08.03.2019 19:27 6,3 C 84 % 1008,6 hPa 0,0 l/m 6,7 km/h (2 Bft) SW 232 0 min 0 W/m 3,8 C 6,1 C 11,3 km/h (2 Bft)
08.03.2019 19:30 6,3 C 84 % 1008,5 hPa 0,0 l/m 8,2 km/h (2 Bft) SW 230 0 min 0 W/m 3,8 C 4,8 C 11,3 km/h (2 Bft)
08.03.2019 19:33 6,3 C 84 % 1008,5 hPa 0,0 l/m 7,7 km/h (2 Bft) SW 229 0 min 0 W/m 3,8 C 5,2 C 11,3 km/h (2 Bft)
08.03.2019 19:36 6,2 C 85 % 1008,5 hPa 0,0 l/m 7,7 km/h (2 Bft) SW 225 0 min 0 W/m 3,9 C 5,1 C 14,5 km/h (3 Bft)
08.03.2019 19:39 6,2 C 85 % 1008,5 hPa 0,0 l/m 6,6 km/h (2 Bft) SW 225 0 min 0 W/m 3,9 C 6,1 C 9,7 km/h (2 Bft)
08.03.2019 19:42 6,2 C 85 % 1008,4 hPa 0,0 l/m 7,0 km/h (2 Bft) SW 221 0 min 0 W/m 3,9 C 5,7 C 12,9 km/h (3 Bft)
08.03.2019 19:45 6,2 C 85 % 1008,4 hPa 0,0 l/m 6,2 km/h (2 Bft) SW 221 0 min 0 W/m 3,9 C 6,2 C 9,7 km/h (2 Bft)
08.03.2019 19:48 6,1 C 85 % 1008,3 hPa 0,0 l/m 6,4 km/h (2 Bft) SW 220 0 min 0 W/m 3,8 C 6,1 C 11,3 km/h (2 Bft)
08.03.2019 19:51 6,1 C 85 % 1008,3 hPa 0,0 l/m 6,3 km/h (2 Bft) SW 220 0 min 0 W/m 3,8 C 6,1 C 11,3 km/h (2 Bft)
08.03.2019 19:54 6,1 C 86 % 1008,3 hPa 0,0 l/m 6,9 km/h (2 Bft) SW 220 0 min 0 W/m 3,9 C 5,7 C 9,7 km/h (2 Bft)
08.03.2019 19:57 6,0 C 86 % 1008,3 hPa 0,0 l/m 6,6 km/h (2 Bft) SW 220 0 min 0 W/m 3,8 C 5,9 C 11,3 km/h (2 Bft)
08.03.2019 20:00 6,0 C 85 % 1008,3 hPa 0,0 l/m 7,6 km/h (2 Bft) SW 217 0 min 0 W/m 3,7 C 5,0 C 11,3 km/h (2 Bft)
08.03.2019 20:03 5,9 C 85 % 1008,3 hPa 0,0 l/m 6,8 km/h (2 Bft) SW 215 0 min 0 W/m 3,6 C 5,6 C 11,3 km/h (2 Bft)
08.03.2019 20:06 5,9 C 85 % 1008,2 hPa 0,0 l/m 7,2 km/h (2 Bft) SW 215 0 min 0 W/m 3,6 C 5,2 C 11,3 km/h (2 Bft)
08.03.2019 20:09 5,9 C 85 % 1008,2 hPa 0,0 l/m 7,2 km/h (2 Bft) S-SW 212 0 min 0 W/m 3,6 C 5,2 C 12,9 km/h (3 Bft)
08.03.2019 20:12 5,9 C 85 % 1008,2 hPa 0,0 l/m 7,5 km/h (2 Bft) S-SW 210 0 min 0 W/m 3,6 C 5,0 C 11,3 km/h (2 Bft)
08.03.2019 20:15 5,9 C 85 % 1008,2 hPa 0,0 l/m 8,8 km/h (2 Bft) S-SW 208 0 min 0 W/m 3,6 C 3,9 C 12,9 km/h (3 Bft)
08.03.2019 20:18 5,9 C 85 % 1008,1 hPa 0,0 l/m 10,8 km/h (2 Bft) S-SW 213 0 min 0 W/m 3,6 C 2,5 C 16,1 km/h (3 Bft)
08.03.2019 20:21 5,9 C 84 % 1008,0 hPa 0,0 l/m 8,8 km/h (2 Bft) S-SW 213 0 min 0 W/m 3,4 C 3,9 C 12,9 km/h (3 Bft)
08.03.2019 20:24 5,9 C 84 % 1008,0 hPa 0,0 l/m 8,0 km/h (2 Bft) S-SW 208 0 min 0 W/m 3,4 C 4,5 C 11,3 km/h (2 Bft)
08.03.2019 20:27 5,9 C 84 % 1008,0 hPa 0,0 l/m 7,8 km/h (2 Bft) S-SW 209 0 min 0 W/m 3,4 C 4,7 C 14,5 km/h (3 Bft)
08.03.2019 20:30 5,9 C 84 % 1008,0 hPa 0,0 l/m 8,6 km/h (2 Bft) S-SW 213 0 min 0 W/m 3,4 C 4,1 C 14,5 km/h (3 Bft)
08.03.2019 20:33 5,9 C 83 % 1007,9 hPa 0,0 l/m 8,1 km/h (2 Bft) S-SW 208 0 min 0 W/m 3,2 C 4,5 C 11,3 km/h (2 Bft)
08.03.2019 20:36 5,9 C 83 % 1008,0 hPa 0,0 l/m 8,1 km/h (2 Bft) S-SW 206 0 min 0 W/m 3,2 C 4,5 C 11,3 km/h (2 Bft)
08.03.2019 20:39 5,8 C 83 % 1008,0 hPa 0,0 l/m 7,1 km/h (2 Bft) S-SW 205 0 min 0 W/m 3,1 C 5,2 C 11,3 km/h (2 Bft)
08.03.2019 20:42 5,8 C 83 % 1007,9 hPa 0,0 l/m 7,7 km/h (2 Bft) S-SW 204 0 min 0 W/m 3,1 C 4,7 C 12,9 km/h (3 Bft)
08.03.2019 20:45 5,7 C 83 % 1007,9 hPa 0,0 l/m 6,5 km/h (2 Bft) S-SW 205 0 min 0 W/m 3,0 C 5,6 C 11,3 km/h (2 Bft)
08.03.2019 20:48 5,7 C 83 % 1007,8 hPa 0,0 l/m 6,3 km/h (2 Bft) S-SW 205 0 min 0 W/m 3,0 C 5,7 C 11,3 km/h (2 Bft)
08.03.2019 20:51 5,6 C 82 % 1007,8 hPa 0,0 l/m 6,1 km/h (2 Bft) S-SW 203 0 min 0 W/m 2,8 C 5,6 C 9,7 km/h (2 Bft)
08.03.2019 20:54 5,6 C 82 % 1007,7 hPa 0,0 l/m 7,0 km/h (2 Bft) S-SW 202 0 min 0 W/m 2,8 C 5,1 C 12,9 km/h (3 Bft)
08.03.2019 20:57 5,5 C 82 % 1007,6 hPa 0,0 l/m 6,5 km/h (2 Bft) S-SW 200 0 min 0 W/m 2,7 C 5,4 C 9,7 km/h (2 Bft)
08.03.2019 21:00 5,4 C 82 % 1007,6 hPa 0,0 l/m 8,7 km/h (2 Bft) S-SW 209 0 min 0 W/m 2,6 C 3,5 C 14,5 km/h (3 Bft)
08.03.2019 21:03 5,4 C 82 % 1007,6 hPa 0,0 l/m 8,4 km/h (2 Bft) S-SW 208 0 min 0 W/m 2,6 C 3,7 C 11,3 km/h (2 Bft)
08.03.2019 21:06 5,3 C 82 % 1007,6 hPa 0,0 l/m 7,8 km/h (2 Bft) S-SW 205 0 min 0 W/m 2,5 C 4,1 C 14,5 km/h (3 Bft)
08.03.2019 21:09 5,3 C 82 % 1007,6 hPa 0,0 l/m 8,3 km/h (2 Bft) S-SW 205 0 min 0 W/m 2,5 C 3,7 C 14,5 km/h (3 Bft)
08.03.2019 21:12 5,2 C 82 % 1007,5 hPa 0,0 l/m 8,8 km/h (2 Bft) S-SW 194 0 min 0 W/m 2,4 C 3,2 C 16,1 km/h (3 Bft)
08.03.2019 21:15 5,2 C 82 % 1007,5 hPa 0,0 l/m 8,5 km/h (2 Bft) S-SW 210 0 min 0 W/m 2,4 C 3,4 C 12,9 km/h (3 Bft)
08.03.2019 21:18 5,2 C 82 % 1007,4 hPa 0,0 l/m 8,9 km/h (2 Bft) S-SW 213 0 min 0 W/m 2,4 C 3,1 C 12,9 km/h (3 Bft)
08.03.2019 21:21 5,2 C 82 % 1007,4 hPa 0,0 l/m 10,4 km/h (2 Bft) S 182 0 min 0 W/m 2,4 C 2,0 C 17,7 km/h (3 Bft)
08.03.2019 21:24 5,2 C 82 % 1007,4 hPa 0,0 l/m 8,7 km/h (2 Bft) S-SW 202 0 min 0 W/m 2,4 C 3,3 C 12,9 km/h (3 Bft)
08.03.2019 21:27 5,2 C 82 % 1007,3 hPa 0,0 l/m 8,3 km/h (2 Bft) S 175 0 min 0 W/m 2,4 C 3,6 C 16,1 km/h (3 Bft)
08.03.2019 21:30 5,1 C 82 % 1007,2 hPa 0,0 l/m 9,1 km/h (2 Bft) S 170 0 min 0 W/m 2,3 C 2,8 C 16,1 km/h (3 Bft)
08.03.2019 21:33 5,1 C 82 % 1007,3 hPa 0,0 l/m 9,0 km/h (2 Bft) S-SW 197 0 min 0 W/m 2,3 C 2,9 C 12,9 km/h (3 Bft)
08.03.2019 21:36 5,1 C 82 % 1007,2 hPa 0,0 l/m 10,2 km/h (2 Bft) S-SW 210 0 min 0 W/m 2,3 C 2,0 C 16,1 km/h (3 Bft)
08.03.2019 21:39 5,1 C 82 % 1007,2 hPa 0,0 l/m 9,8 km/h (2 Bft) S-SW 194 0 min 0 W/m 2,3 C 2,3 C 14,5 km/h (3 Bft)
08.03.2019 21:42 5,1 C 82 % 1007,2 hPa 0,0 l/m 8,3 km/h (2 Bft) S-SW 198 0 min 0 W/m 2,3 C 3,5 C 12,9 km/h (3 Bft)
08.03.2019 21:45 5,1 C 82 % 1007,1 hPa 0,0 l/m 8,7 km/h (2 Bft) S-SW 200 0 min 0 W/m 2,3 C 3,1 C 14,5 km/h (3 Bft)
08.03.2019 21:48 5,1 C 82 % 1007,1 hPa 0,0 l/m 9,2 km/h (2 Bft) S-SW 209 0 min 0 W/m 2,3 C 2,8 C 16,1 km/h (3 Bft)
08.03.2019 21:51 5,1 C 82 % 1007,1 hPa 0,0 l/m 8,7 km/h (2 Bft) S-SW 195 0 min 0 W/m 2,3 C 3,1 C 17,7 km/h (3 Bft)
08.03.2019 21:54 5,1 C 82 % 1007,0 hPa 0,0 l/m 9,2 km/h (2 Bft) S 184 0 min 0 W/m 2,3 C 2,8 C 12,9 km/h (3 Bft)
08.03.2019 21:57 5,1 C 82 % 1006,9 hPa 0,0 l/m 10,1 km/h (2 Bft) S-SW 205 0 min 0 W/m 2,3 C 2,1 C 19,3 km/h (3 Bft)
08.03.2019 22:00 5,1 C 82 % 1006,9 hPa 0,0 l/m 10,0 km/h (2 Bft) SW 215 0 min 0 W/m 2,3 C 2,2 C 14,5 km/h (3 Bft)
08.03.2019 22:03 5,1 C 82 % 1006,9 hPa 0,0 l/m 12,0 km/h (2 Bft) S-SW 198 0 min 0 W/m 2,3 C 0,9 C 19,3 km/h (3 Bft)
08.03.2019 22:06 5,1 C 82 % 1006,9 hPa 0,0 l/m 11,9 km/h (2 Bft) S-SW 206 0 min 0 W/m 2,3 C 0,9 C 20,9 km/h (4 Bft)
08.03.2019 22:09 5,1 C 82 % 1006,8 hPa 0,0 l/m 11,6 km/h (2 Bft) SW 217 0 min 0 W/m 2,3 C 1,1 C 19,3 km/h (3 Bft)
08.03.2019 22:12 5,2 C 82 % 1006,7 hPa 0,0 l/m 13,1 km/h (3 Bft) SW 220 0 min 0 W/m 2,4 C 0,3 C 20,9 km/h (4 Bft)
08.03.2019 22:15 5,2 C 82 % 1006,7 hPa 0,0 l/m 11,3 km/h (2 Bft) SW 216 0 min 0 W/m 2,4 C 1,4 C 14,5 km/h (3 Bft)
08.03.2019 22:18 5,2 C 83 % 1006,7 hPa 0,0 l/m 10,8 km/h (2 Bft) S-SW 212 0 min 0 W/m 2,6 C 1,7 C 19,3 km/h (3 Bft)
08.03.2019 22:21 5,2 C 83 % 1006,7 hPa 0,0 l/m 9,7 km/h (2 Bft) S 177 0 min 0 W/m 2,6 C 2,5 C 14,5 km/h (3 Bft)
08.03.2019 22:24 5,2 C 83 % 1006,6 hPa 0,0 l/m 11,4 km/h (2 Bft) S-SW 206 0 min 0 W/m 2,6 C 1,4 C 16,1 km/h (3 Bft)
08.03.2019 22:27 5,2 C 83 % 1006,6 hPa 0,0 l/m 11,8 km/h (2 Bft) S-SW 197 0 min 0 W/m 2,6 C 1,1 C 19,3 km/h (3 Bft)
08.03.2019 22:30 5,2 C 83 % 1006,6 hPa 0,0 l/m 11,4 km/h (2 Bft) S-SW 202 0 min 0 W/m 2,6 C 1,4 C 17,7 km/h (3 Bft)
08.03.2019 22:33 5,3 C 83 % 1006,4 hPa 0,0 l/m 11,8 km/h (2 Bft) S-SW 199 0 min 0 W/m 2,7 C 1,2 C 19,3 km/h (3 Bft)
08.03.2019 22:36 5,3 C 83 % 1006,4 hPa 0,0 l/m 9,8 km/h (2 Bft) S-SW 204 0 min 0 W/m 2,7 C 2,5 C 16,1 km/h (3 Bft)
08.03.2019 22:39 5,3 C 83 % 1006,4 hPa 0,0 l/m 10,8 km/h (2 Bft) S 174 0 min 0 W/m 2,7 C 1,9 C 17,7 km/h (3 Bft)
08.03.2019 22:42 5,3 C 83 % 1006,4 hPa 0,0 l/m 12,0 km/h (2 Bft) SW 226 0 min 0 W/m 2,7 C 1,1 C 20,9 km/h (4 Bft)
08.03.2019 22:45 5,3 C 83 % 1006,3 hPa 0,0 l/m 13,0 km/h (3 Bft) S 182 0 min 0 W/m 2,7 C 0,5 C 20,9 km/h (4 Bft)
08.03.2019 22:48 5,3 C 83 % 1006,3 hPa 0,0 l/m 13,1 km/h (3 Bft) S 188 0 min 0 W/m 2,7 C 0,5 C 20,9 km/h (4 Bft)
08.03.2019 22:51 5,2 C 83 % 1006,2 hPa 0,0 l/m 14,2 km/h (3 Bft) S-SW 200 0 min 0 W/m 2,6 C -0,3 C 20,9 km/h (4 Bft)
08.03.2019 22:54 5,2 C 83 % 1006,1 hPa 0,0 l/m 12,0 km/h (2 Bft) S 173 0 min 0 W/m 2,6 C 1,0 C 19,3 km/h (3 Bft)
08.03.2019 22:57 5,2 C 83 % 1006,1 hPa 0,0 l/m 11,6 km/h (2 Bft) S 182 0 min 0 W/m 2,6 C 1,2 C 14,5 km/h (3 Bft)
08.03.2019 23:00 5,2 C 83 % 1006,0 hPa 0,0 l/m 12,7 km/h (3 Bft) S 187 0 min 0 W/m 2,6 C 0,6 C 24,1 km/h (4 Bft)
08.03.2019 23:03 5,2 C 83 % 1005,9 hPa 0,0 l/m 10,9 km/h (2 Bft) S 186 0 min 0 W/m 2,6 C 1,7 C 16,1 km/h (3 Bft)
08.03.2019 23:06 5,2 C 83 % 1005,8 hPa 0,0 l/m 11,6 km/h (2 Bft) S-SO 167 0 min 0 W/m 2,6 C 1,2 C 19,3 km/h (3 Bft)
08.03.2019 23:09 5,1 C 83 % 1005,6 hPa 0,0 l/m 14,5 km/h (3 Bft) S 182 0 min 0 W/m 2,5 C -0,5 C 24,1 km/h (4 Bft)
08.03.2019 23:12 5,1 C 84 % 1005,6 hPa 0,0 l/m 12,1 km/h (2 Bft) S 182 0 min 0 W/m 2,6 C 0,8 C 19,3 km/h (3 Bft)
08.03.2019 23:15 5,1 C 83 % 1005,5 hPa 0,0 l/m 12,4 km/h (2 Bft) S 176 0 min 0 W/m 2,5 C 0,6 C 20,9 km/h (4 Bft)
08.03.2019 23:18 5,1 C 84 % 1005,5 hPa 0,0 l/m 16,3 km/h (3 Bft) S 190 0 min 0 W/m 2,6 C -1,4 C 24,1 km/h (4 Bft)
08.03.2019 23:21 5,1 C 84 % 1005,5 hPa 0,0 l/m 15,2 km/h (3 Bft) S 176 0 min 0 W/m 2,6 C -0,9 C 22,5 km/h (4 Bft)
08.03.2019 23:24 5,1 C 84 % 1005,4 hPa 0,0 l/m 14,2 km/h (3 Bft) S-SW 193 0 min 0 W/m 2,6 C -0,4 C 22,5 km/h (4 Bft)
08.03.2019 23:27 5,2 C 84 % 1005,2 hPa 0,0 l/m 12,1 km/h (2 Bft) S 174 0 min 0 W/m 2,7 C 0,9 C 19,3 km/h (3 Bft)
08.03.2019 23:30 5,2 C 84 % 1005,3 hPa 0,0 l/m 11,7 km/h (2 Bft) S 175 0 min 0 W/m 2,7 C 1,2 C 19,3 km/h (3 Bft)
08.03.2019 23:33 5,2 C 84 % 1005,2 hPa 0,0 l/m 13,6 km/h (3 Bft) S 180 0 min 0 W/m 2,7 C 0,1 C 20,9 km/h (4 Bft)
08.03.2019 23:36 5,2 C 84 % 1005,1 hPa 0,0 l/m 13,8 km/h (3 Bft) S 178 0 min 0 W/m 2,7 C -0,0 C 22,5 km/h (4 Bft)
08.03.2019 23:39 5,2 C 84 % 1005,1 hPa 0,0 l/m 15,3 km/h (3 Bft) S 169 0 min 0 W/m 2,7 C -0,8 C 22,5 km/h (4 Bft)
08.03.2019 23:42 5,1 C 84 % 1005,0 hPa 0,0 l/m 11,6 km/h (2 Bft) S 179 0 min 0 W/m 2,6 C 1,1 C 17,7 km/h (3 Bft)
08.03.2019 23:45 5,1 C 84 % 1005,0 hPa 0,0 l/m 13,9 km/h (3 Bft) S 184 0 min 0 W/m 2,6 C -0,2 C 22,5 km/h (4 Bft)
08.03.2019 23:48 5,1 C 84 % 1004,9 hPa 0,0 l/m 12,6 km/h (3 Bft) S 178 0 min 0 W/m 2,6 C 0,5 C 17,7 km/h (3 Bft)
08.03.2019 23:51 5,1 C 84 % 1005,0 hPa 0,0 l/m 12,8 km/h (3 Bft) S 188 0 min 0 W/m 2,6 C 0,4 C 20,9 km/h (4 Bft)
08.03.2019 23:54 5,1 C 84 % 1004,9 hPa 0,0 l/m 11,8 km/h (2 Bft) S 173 0 min 0 W/m 2,6 C 1,0 C 19,3 km/h (3 Bft)
08.03.2019 23:57 5,1 C 84 % 1004,9 hPa 0,0 l/m 12,0 km/h (2 Bft) S-SO 157 0 min 0 W/m 2,6 C 0,9 C 19,3 km/h (3 Bft)
_ Min-Zeit 23:57 12:51 00:30 - 19:03 - - - - 21:30 00:33 19:03
Minimum _ 5,0 C 68 % 987,6 hPa - 5,3 km/h (1 Bft) - - - - 2,3 C -4,8 C 8,0 km/h (2 Bft)
_ Max-Zeit 12:51 02:30 16:57 01:21 00:33 - - 10:03 13:30 04:00 18:45 01:57
Maximum _ 8,8 C 95 % 1009,0 hPa 0,4 l/m 30,9 km/h
W-SW (5 Bft)
- - 3 min 610 W/m 6,0 C 6,6 C 54,7 km/h
SW (7 Bft)
Durchschnitt _ 6,7 C 84 % 1000,7 hPa #6,8 l/m 17,1 km/h (3 Bft) W - #2:42 h 187 W/m 4,1 C 0,7 C 28,6 km/h (5 Bft)
2019 Cux-Wetter.de -Die Nutzung der Wetterdaten nur mit ausdrcklicher Genehmigung